| time (UTC) | temp F | wind direction | speed knots | gust knots | rain 1hr in | rain 24hr in | rain mn in | humidity % | barometer mb |
| 20260903160225 | 88 | 98 | 1.7 | 7.0 | 0.00 | 0.00 | 0.00 | 66 | 1021.6 |
| 20260903160125 | 88 | 85 | 0.9 | 4.3 | 0.00 | 0.00 | 0.00 | 66 | 1021.6 |
| 20260903160027 | 88 | 82 | 0.9 | 3.5 | 0.00 | 0.00 | 0.00 | 67 | 1021.7 |
| 20260903155923 | 87 | 82 | 0.9 | 3.5 | 0.00 | 0.00 | 0.00 | 66 | 1021.6 |
| 20260903155813 | 87 | 82 | 0.9 | 3.5 | 0.00 | 0.00 | 0.00 | 65 | 1021.6 |
| 20260903155714 | 87 | 82 | 0.9 | 3.5 | 0.00 | 0.00 | 0.00 | 64 | 1021.9 |
| 20260903155614 | 87 | 117 | 0.9 | 2.6 | 0.00 | 0.00 | 0.00 | 68 | 1021.7 |
| 20260903155514 | 87 | 127 | 0.9 | 2.6 | 0.00 | 0.00 | 0.00 | 68 | 1021.9 |
| 20260903155414 | 87 | 127 | 0.9 | 2.6 | 0.00 | 0.00 | 0.00 | 68 | 1021.9 |
| 20260903155307 | 87 | 127 | 0.0 | 2.6 | 0.00 | 0.00 | 0.00 | 67 | 1021.9 |
| 20260903155207 | 87 | 127 | 0.0 | 2.6 | 0.00 | 0.00 | 0.00 | 68 | 1021.9 |
| 20260903155109 | 87 | 127 | 0.0 | 2.6 | 0.00 | 0.00 | 0.00 | 67 | 1021.9 |
| 20260903155007 | 87 | 127 | 0.0 | 2.6 | 0.00 | 0.00 | 0.00 | 69 | 1022.0 |
| 20260903154907 | 87 | 128 | 0.0 | 0.0 | 0.00 | 0.00 | 0.00 | 66 | 1022.0 |
| 20260903154802 | 87 | 127 | 0.0 | 0.0 | 0.00 | 0.00 | 0.00 | 68 | 1022.0 |
| 20260903154702 | 87 | 96 | 0.0 | 0.0 | 0.00 | 0.00 | 0.00 | 70 | 1022.0 |
| 20260903154603 | 87 | 94 | 0.0 | 0.0 | 0.00 | 0.00 | 0.00 | 69 | 1022.0 |
| 20260903154501 | 87 | 103 | 0.0 | 0.0 | 0.00 | 0.00 | 0.00 | 67 | 1022.0 |
| 20260903154402 | 87 | 103 | 0.0 | 0.0 | 0.00 | 0.00 | 0.00 | 67 | 1021.9 |
| 20260903154251 | 87 | 103 | 0.0 | 0.0 | 0.00 | 0.00 | 0.00 | 69 | 1021.9 |
| 20260903154152 | 87 | 78 | 0.0 | 0.0 | 0.00 | 0.00 | 0.00 | 70 | 1022.0 |
| 20260903154052 | 87 | 77 | 0.0 | 0.0 | 0.00 | 0.00 | 0.00 | 69 | 1021.9 |
| 20260903153952 | 87 | 78 | 0.0 | 0.0 | 0.00 | 0.00 | 0.00 | 69 | 1022.0 |
| 20260903153852 | 87 | 82 | 0.0 | 0.0 | 0.00 | 0.00 | 0.00 | 69 | 1022.0 |
| 20260903153748 | 87 | 81 | 0.0 | 0.0 | 0.00 | 0.00 | 0.00 | 74 | 1022.0 |
| 20260903153648 | 87 | 30 | 0.0 | 0.0 | 0.00 | 0.00 | 0.00 | 73 | 1021.9 |
| 20260903153547 | 86 | 29 | 0.0 | 0.0 | 0.00 | 0.00 | 0.00 | 72 | 1022.0 |
| 20260903153448 | 86 | 30 | 0.0 | 0.0 | 0.00 | 0.00 | 0.00 | 72 | 1022.0 |
| 20260903153345 | 86 | 30 | 0.0 | 0.0 | 0.00 | 0.00 | 0.00 | 72 | 1022.0 |
| 20260903153245 | 86 | 30 | 0.0 | 0.0 | 0.00 | 0.00 | 0.00 | 72 | 1021.9 |
| 20260903153145 | 86 | 30 | 0.0 | 0.0 | 0.00 | 0.00 | 0.00 | 72 | 1022.0 |
| 20260903153043 | 86 | 30 | 0.0 | 0.0 | 0.00 | 0.00 | 0.00 | 73 | 1022.0 |
| 20260903152943 | 86 | 69 | 0.0 | 0.0 | 0.00 | 0.00 | 0.00 | 72 | 1022.0 |
| 20260903152840 | 86 | 69 | 0.0 | 0.0 | 0.00 | 0.00 | 0.00 | 73 | 1021.9 |
| 20260903152734 | 86 | 77 | 0.0 | 0.0 | 0.00 | 0.00 | 0.00 | 74 | 1022.0 |
| 20260903152633 | 86 | 53 | 0.0 | 0.0 | 0.00 | 0.00 | 0.00 | 73 | 1022.0 |
| 20260903152534 | 87 | 16 | 0.0 | 0.0 | 0.00 | 0.00 | 0.00 | 73 | 1021.9 |
| 20260903152432 | 87 | 16 | 0.0 | 0.0 | 0.00 | 0.00 | 0.00 | 72 | 1021.7 |
| 20260903152330 | 87 | 17 | 0.0 | 0.0 | 0.00 | 0.00 | 0.00 | 72 | 1021.9 |
| 20260903152225 | 87 | 23 | 0.0 | 0.0 | 0.00 | 0.00 | 0.00 | 74 | 1022.0 |
| 20260903152124 | 87 | 23 | 0.0 | 0.0 | 0.00 | 0.00 | 0.00 | 73 | 1021.9 |
| 20260903152023 | 87 | 19 | 0.0 | 0.0 | 0.00 | 0.00 | 0.00 | 74 | 1021.9 |
| 20260903151924 | 87 | 24 | 0.0 | 0.0 | 0.00 | 0.00 | 0.00 | 73 | 1022.0 |
| 20260903151824 | 87 | 27 | 0.0 | 0.0 | 0.00 | 0.00 | 0.00 | 73 | 1021.9 |
| 20260903151724 | 87 | 28 | 0.0 | 0.0 | 0.00 | 0.00 | 0.00 | 72 | 1021.9 |
| 20260903151621 | 87 | 0 | 0.0 | 0.0 | 0.00 | 0.00 | 0.00 | 72 | 1022.0 |
| 20260903151521 | 87 | 344 | 0.0 | 0.0 | 0.00 | 0.00 | 0.00 | 74 | 1022.0 |
| 20260903151421 | 87 | 5 | 0.0 | 0.0 | 0.00 | 0.00 | 0.00 | 73 | 1022.0 |
| 20260903151317 | 87 | 24 | 0.0 | 0.0 | 0.00 | 0.00 | 0.00 | 73 | 1022.0 |
| 20260903151210 | 87 | 109 | 0.0 | 0.0 | 0.00 | 0.00 | 0.00 | 72 | 1022.0 |
| 20260903151107 | 87 | 84 | 0.0 | 0.0 | 0.00 | 0.00 | 0.00 | 74 | 1022.0 |
| 20260903151007 | 87 | 103 | 0.0 | 0.0 | 0.00 | 0.00 | 0.00 | 72 | 1021.9 |
| 20260903150909 | 87 | 103 | 0.0 | 0.0 | 0.00 | 0.00 | 0.00 | 72 | 1022.0 |
| 20260903150808 | 87 | 96 | 0.0 | 0.0 | 0.00 | 0.00 | 0.00 | 71 | 1021.9 |
| 20260903150701 | 87 | 96 | 0.0 | 0.0 | 0.00 | 0.00 | 0.00 | 69 | 1022.0 |
| 20260903150602 | 87 | 96 | 0.0 | 0.0 | 0.00 | 0.00 | 0.00 | 69 | 1022.0 |
| 20260903150501 | 87 | 111 | 0.0 | 2.6 | 0.00 | 0.00 | 0.00 | 71 | 1022.0 |
| 20260903150400 | 87 | 104 | 0.0 | 2.6 | 0.00 | 0.00 | 0.00 | 71 | 1022.0 |
| 20260903150302 | 87 | 215 | 0.9 | 2.6 | 0.00 | 0.00 | 0.00 | 71 | 1022.0 |
| 20260903150202 | 87 | 215 | 0.9 | 2.6 | 0.00 | 0.00 | 0.00 | 72 | 1021.9 |
| 20260903150101 | 86 | 112 | 0.9 | 4.3 | 0.00 | 0.00 | 0.00 | 72 | 1022.0 |
| 20260903145958 | 86 | 111 | 1.7 | 4.3 | 0.00 | 0.00 | 0.00 | 72 | 1021.9 |
| 20260903145858 | 86 | 105 | 1.7 | 4.3 | 0.00 | 0.00 | 0.00 | 71 | 1021.7 |
| 20260903145755 | 86 | 87 | 1.7 | 4.3 | 0.00 | 0.00 | 0.00 | 73 | 1021.9 |
| 20260903145649 | 86 | 62 | 1.7 | 4.3 | 0.00 | 0.00 | 0.00 | 74 | 1021.9 |
| 20260903145549 | 86 | 62 | 2.6 | 4.3 | 0.00 | 0.00 | 0.00 | 71 | 1021.9 |
| 20260903145449 | 86 | 62 | 2.6 | 5.2 | 0.00 | 0.00 | 0.00 | 70 | 1021.9 |
| 20260903145349 | 86 | 62 | 2.6 | 5.2 | 0.00 | 0.00 | 0.00 | 74 | 1021.7 |
| 20260903145245 | 86 | 62 | 2.6 | 5.2 | 0.00 | 0.00 | 0.00 | 73 | 1021.7 |
| 20260903145143 | 86 | 62 | 2.6 | 5.2 | 0.00 | 0.00 | 0.00 | 74 | 1021.7 |
| 20260903145043 | 86 | 43 | 1.7 | 5.2 | 0.00 | 0.00 | 0.00 | 73 | 1021.9 |
| 20260903144943 | 86 | 99 | 1.7 | 5.2 | 0.00 | 0.00 | 0.00 | 71 | 1021.9 |
| 20260903144841 | 86 | 98 | 1.7 | 5.2 | 0.00 | 0.00 | 0.00 | 72 | 1021.7 |
| 20260903144739 | 86 | 71 | 1.7 | 5.2 | 0.00 | 0.00 | 0.00 | 73 | 1021.7 |
| 20260903144633 | 85 | 67 | 0.9 | 5.2 | 0.00 | 0.00 | 0.00 | 72 | 1021.7 |
| 20260903144533 | 85 | 65 | 0.9 | 5.2 | 0.00 | 0.00 | 0.00 | 72 | 1021.9 |
| 20260903144435 | 85 | 38 | 0.9 | 3.5 | 0.00 | 0.00 | 0.00 | 72 | 1021.9 |
| 20260903144333 | 85 | 38 | 0.0 | 3.5 | 0.00 | 0.00 | 0.00 | 74 | 1021.7 |
| 20260903144234 | 85 | 84 | 0.0 | 2.6 | 0.00 | 0.00 | 0.00 | 72 | 1021.7 |
| 20260903144126 | 85 | 83 | 0.0 | 0.0 | 0.00 | 0.00 | 0.00 | 71 | 1021.7 |
| 20260903144024 | 85 | 83 | 0.0 | 0.0 | 0.00 | 0.00 | 0.00 | 72 | 1021.9 |
| 20260903143924 | 85 | 82 | 0.0 | 0.0 | 0.00 | 0.00 | 0.00 | 73 | 1021.7 |
| 20260903143824 | 85 | 83 | 0.0 | 0.0 | 0.00 | 0.00 | 0.00 | 72 | 1021.6 |
| 20260903143724 | 85 | 83 | 0.0 | 0.0 | 0.00 | 0.00 | 0.00 | 72 | 1021.7 |
| 20260903143625 | 86 | 83 | 0.0 | 0.0 | 0.00 | 0.00 | 0.00 | 73 | 1021.9 |
| 20260903143521 | 85 | 72 | 0.0 | 0.0 | 0.00 | 0.00 | 0.00 | 72 | 1021.9 |
| 20260903143423 | 85 | 101 | 0.0 | 0.0 | 0.00 | 0.00 | 0.00 | 73 | 1021.9 |
| 20260903143320 | 85 | 97 | 0.0 | 0.0 | 0.00 | 0.00 | 0.00 | 73 | 1021.7 |
| 20260903143217 | 85 | 97 | 0.0 | 0.0 | 0.00 | 0.00 | 0.00 | 71 | 1021.9 |
| 20260903143112 | 85 | 95 | 0.0 | 0.0 | 0.00 | 0.00 | 0.00 | 73 | 1021.7 |
| 20260903143011 | 85 | 138 | 0.0 | 0.0 | 0.00 | 0.00 | 0.00 | 73 | 1021.7 |
| 20260903142913 | 85 | 103 | 0.0 | 0.0 | 0.00 | 0.00 | 0.00 | 75 | 1021.9 |
| 20260903142811 | 85 | 103 | 0.0 | 0.0 | 0.00 | 0.00 | 0.00 | 73 | 1021.6 |
| 20260903142712 | 85 | 104 | 0.0 | 0.0 | 0.00 | 0.00 | 0.00 | 72 | 1021.7 |
| 20260903142602 | 85 | 106 | 0.0 | 0.0 | 0.00 | 0.00 | 0.00 | 72 | 1021.6 |
| 20260903142501 | 85 | 110 | 0.0 | 0.0 | 0.00 | 0.00 | 0.00 | 73 | 1021.7 |
| 20260903142402 | 85 | 86 | 0.0 | 0.0 | 0.00 | 0.00 | 0.00 | 72 | 1021.7 |
| 20260903142301 | 85 | 111 | 0.0 | 0.0 | 0.00 | 0.00 | 0.00 | 71 | 1021.7 |
| 20260903142201 | 85 | 111 | 0.0 | 0.0 | 0.00 | 0.00 | 0.00 | 75 | 1021.6 |
| 20260903142059 | 85 | 111 | 0.0 | 0.0 | 0.00 | 0.00 | 0.00 | 73 | 1021.6 |
| 20260903142000 | 85 | 114 | 0.0 | 0.0 | 0.00 | 0.00 | 0.00 | 72 | 1021.6 |
| 20260903141859 | 84 | 114 | 0.0 | 0.0 | 0.00 | 0.00 | 0.00 | 73 | 1021.6 |
| 20260903141758 | 84 | 114 | 0.0 | 0.0 | 0.00 | 0.00 | 0.00 | 72 | 1021.7 |
| 20260903141656 | 84 | 114 | 0.0 | 0.0 | 0.00 | 0.00 | 0.00 | 73 | 1021.6 |
| 20260903141553 | 84 | 114 | 0.0 | 0.0 | 0.00 | 0.00 | 0.00 | 72 | 1021.7 |
| 20260903141452 | 84 | 113 | 0.0 | 0.0 | 0.00 | 0.00 | 0.00 | 72 | 1021.7 |
| 20260903141353 | 84 | 113 | 0.0 | 0.0 | 0.00 | 0.00 | 0.00 | 73 | 1021.7 |
| 20260903141252 | 84 | 338 | 0.0 | 0.0 | 0.00 | 0.00 | 0.00 | 75 | 1021.7 |
| 20260903141150 | 83 | 324 | 0.0 | 0.0 | 0.00 | 0.00 | 0.00 | 75 | 1021.7 |
| 20260903141043 | 83 | 324 | 0.0 | 0.0 | 0.00 | 0.00 | 0.00 | 74 | 1021.6 |
| 20260903140943 | 83 | 325 | 0.0 | 0.0 | 0.00 | 0.00 | 0.00 | 75 | 1021.9 |
| 20260903140844 | 83 | 323 | 0.0 | 0.0 | 0.00 | 0.00 | 0.00 | 77 | 1021.7 |
| 20260903140742 | 83 | 323 | 0.0 | 0.0 | 0.00 | 0.00 | 0.00 | 75 | 1021.7 |
| 20260903140639 | 83 | 323 | 0.0 | 0.0 | 0.00 | 0.00 | 0.00 | 74 | 1021.7 |
| 20260903140539 | 83 | 323 | 0.0 | 0.0 | 0.00 | 0.00 | 0.00 | 74 | 1021.7 |
| 20260903140439 | 82 | 323 | 0.0 | 0.0 | 0.00 | 0.00 | 0.00 | 75 | 1021.6 |
| 20260903140337 | 82 | 323 | 0.0 | 0.0 | 0.00 | 0.00 | 0.00 | 76 | 1021.6 |
| 20260903140237 | 82 | 322 | 0.0 | 0.0 | 0.00 | 0.00 | 0.00 | 76 | 1021.7 |
| 20260903140133 | 82 | 322 | 0.0 | 0.0 | 0.00 | 0.00 | 0.00 | 77 | 1021.6 |
| 20260903140033 | 82 | 322 | 0.0 | 0.0 | 0.00 | 0.00 | 0.00 | 75 | 1021.7 |
| 20260903135932 | 82 | 322 | 0.0 | 0.0 | 0.00 | 0.00 | 0.00 | 75 | 1021.6 |
| 20260903135831 | 82 | 323 | 0.0 | 0.0 | 0.00 | 0.00 | 0.00 | 75 | 1021.6 |
| 20260903135730 | 82 | 323 | 0.0 | 0.0 | 0.00 | 0.00 | 0.00 | 76 | 1021.6 |
| 20260903135627 | 82 | 323 | 0.0 | 0.0 | 0.00 | 0.00 | 0.00 | 76 | 1021.6 |
| 20260903135521 | 82 | 323 | 0.0 | 0.0 | 0.00 | 0.00 | 0.00 | 77 | 1021.6 |
| 20260903135421 | 82 | 323 | 0.0 | 0.0 | 0.00 | 0.00 | 0.00 | 77 | 1021.6 |
| 20260903135320 | 81 | 323 | 0.0 | 0.0 | 0.00 | 0.00 | 0.00 | 76 | 1021.7 |
| 20260903135220 | 82 | 322 | 0.0 | 0.0 | 0.00 | 0.00 | 0.00 | 78 | 1021.7 |
| 20260903135118 | 81 | 322 | 0.0 | 0.0 | 0.00 | 0.00 | 0.00 | 78 | 1021.6 |
| 20260903135015 | 81 | 322 | 0.0 | 0.0 | 0.00 | 0.00 | 0.00 | 78 | 1021.6 |
| 20260903134915 | 81 | 322 | 0.0 | 0.0 | 0.00 | 0.00 | 0.00 | 77 | 1021.6 |
| 20260903134815 | 81 | 321 | 0.0 | 0.0 | 0.00 | 0.00 | 0.00 | 79 | 1021.6 |
| 20260903134713 | 81 | 322 | 0.0 | 0.0 | 0.00 | 0.00 | 0.00 | 78 | 1021.7 |
| 20260903134611 | 81 | 321 | 0.0 | 3.5 | 0.00 | 0.00 | 0.00 | 77 | 1021.6 |
| 20260903134509 | 81 | 321 | 0.0 | 3.5 | 0.00 | 0.00 | 0.00 | 77 | 1021.6 |
| 20260903134405 | 81 | 321 | 0.0 | 3.5 | 0.00 | 0.00 | 0.00 | 77 | 1021.6 |
| 20260903134307 | 81 | 322 | 0.0 | 3.5 | 0.00 | 0.00 | 0.00 | 78 | 1021.6 |
| 20260903134206 | 82 | 322 | 0.0 | 3.5 | 0.00 | 0.00 | 0.00 | 78 | 1021.6 |
| 20260903134106 | 82 | 322 | 0.0 | 3.5 | 0.00 | 0.00 | 0.00 | 79 | 1021.6 |
| 20260903134000 | 82 | 321 | 0.0 | 3.5 | 0.00 | 0.00 | 0.00 | 79 | 1021.6 |
| 20260903133900 | 82 | 321 | 0.0 | 3.5 | 0.00 | 0.00 | 0.00 | 79 | 1021.6 |
| 20260903133802 | 82 | 320 | 0.0 | 3.5 | 0.00 | 0.00 | 0.00 | 79 | 1021.6 |
| 20260903133658 | 81 | 319 | 0.0 | 3.5 | 0.00 | 0.00 | 0.00 | 78 | 1021.6 |
| 20260903133556 | 81 | 319 | 0.0 | 2.6 | 0.00 | 0.00 | 0.00 | 79 | 1021.7 |
| 20260903133455 | 81 | 312 | 0.0 | 1.7 | 0.00 | 0.00 | 0.00 | 80 | 1021.6 |
| 20260903133353 | 81 | 306 | 0.0 | 0.9 | 0.00 | 0.00 | 0.00 | 80 | 1021.6 |
| 20260903133253 | 81 | 304 | 0.0 | 0.9 | 0.00 | 0.00 | 0.00 | 80 | 1021.6 |
| 20260903133152 | 81 | 303 | 0.0 | 0.0 | 0.00 | 0.00 | 0.00 | 79 | 1021.7 |
| 20260903133050 | 81 | 303 | 0.0 | 0.0 | 0.00 | 0.00 | 0.00 | 80 | 1021.6 |
| 20260903132946 | 81 | 303 | 0.0 | 0.0 | 0.00 | 0.00 | 0.00 | 80 | 1021.6 |
| 20260903132844 | 81 | 302 | 0.0 | 0.0 | 0.00 | 0.00 | 0.00 | 80 | 1021.6 |
| 20260903132744 | 81 | 302 | 0.0 | 0.0 | 0.00 | 0.00 | 0.00 | 80 | 1021.6 |
| 20260903132644 | 81 | 302 | 0.0 | 0.0 | 0.00 | 0.00 | 0.00 | 80 | 1021.7 |
| 20260903132544 | 80 | 302 | 0.0 | 0.0 | 0.00 | 0.00 | 0.00 | 79 | 1021.9 |
| 20260903132436 | 80 | 302 | 0.0 | 0.0 | 0.00 | 0.00 | 0.00 | 79 | 1021.7 |
| 20260903132338 | 80 | 302 | 0.0 | 0.0 | 0.00 | 0.00 | 0.00 | 78 | 1021.7 |
| 20260903132237 | 80 | 302 | 0.0 | 0.0 | 0.00 | 0.00 | 0.00 | 80 | 1021.6 |
| 20260903132136 | 80 | 302 | 0.0 | 0.0 | 0.00 | 0.00 | 0.00 | 81 | 1021.9 |
| 20260903132033 | 80 | 302 | 0.0 | 0.0 | 0.00 | 0.00 | 0.00 | 80 | 1021.7 |
| 20260903131933 | 80 | 302 | 0.0 | 0.0 | 0.00 | 0.00 | 0.00 | 81 | 1021.6 |
| 20260903131830 | 80 | 302 | 0.0 | 0.9 | 0.00 | 0.00 | 0.00 | 80 | 1021.6 |
| 20260903131731 | 80 | 302 | 0.0 | 0.9 | 0.00 | 0.00 | 0.00 | 81 | 1021.7 |
| 20260903131630 | 80 | 302 | 0.0 | 0.9 | 0.00 | 0.00 | 0.00 | 82 | 1021.6 |
| 20260903131528 | 80 | 302 | 0.0 | 0.9 | 0.00 | 0.00 | 0.00 | 81 | 1021.7 |
| 20260903131424 | 80 | 302 | 0.0 | 0.9 | 0.00 | 0.00 | 0.00 | 82 | 1021.6 |
| 20260903131322 | 80 | 302 | 0.0 | 0.9 | 0.00 | 0.00 | 0.00 | 81 | 1021.7 |
| 20260903131223 | 80 | 302 | 0.0 | 0.9 | 0.00 | 0.00 | 0.00 | 81 | 1021.6 |
| 20260903131121 | 80 | 302 | 0.0 | 0.9 | 0.00 | 0.00 | 0.00 | 81 | 1021.6 |
| 20260903131022 | 80 | 302 | 0.0 | 0.9 | 0.00 | 0.00 | 0.00 | 81 | 1021.6 |
| 20260903130915 | 80 | 302 | 0.0 | 0.9 | 0.00 | 0.00 | 0.00 | 82 | 1021.9 |
| 20260903130815 | 80 | 302 | 0.0 | 0.9 | 0.00 | 0.00 | 0.00 | 82 | 1021.7 |
| 20260903130715 | 80 | 302 | 0.0 | 0.9 | 0.00 | 0.00 | 0.00 | 83 | 1021.7 |
| 20260903130616 | 79 | 300 | 0.0 | 0.9 | 0.00 | 0.00 | 0.00 | 83 | 1021.7 |
| 20260903130512 | 79 | 298 | 0.0 | 0.9 | 0.00 | 0.00 | 0.00 | 83 | 1021.7 |
| 20260903130407 | 79 | 298 | 0.0 | 0.9 | 0.00 | 0.00 | 0.00 | 82 | 1021.7 |
| 20260903130306 | 79 | 298 | 0.0 | 2.6 | 0.00 | 0.00 | 0.00 | 82 | 1021.7 |
| 20260903130208 | 79 | 298 | 0.9 | 3.5 | 0.00 | 0.00 | 0.00 | 82 | 1021.6 |
| 20260903130108 | 79 | 298 | 0.9 | 4.3 | 0.00 | 0.00 | 0.00 | 81 | 1021.7 |
| 20260903130006 | 79 | 297 | 0.9 | 5.2 | 0.00 | 0.00 | 0.00 | 81 | 1021.7 |
| 20260903125903 | 79 | 297 | 0.9 | 5.2 | 0.00 | 0.00 | 0.00 | 82 | 1021.6 |
| 20260903125759 | 79 | 297 | 0.9 | 5.2 | 0.00 | 0.00 | 0.00 | 82 | 1021.7 |
| 20260903125700 | 79 | 297 | 0.9 | 5.2 | 0.00 | 0.00 | 0.00 | 81 | 1021.6 |
| 20260903125600 | 79 | 296 | 0.9 | 5.2 | 0.00 | 0.00 | 0.00 | 81 | 1021.6 |
| 20260903125500 | 79 | 296 | 0.9 | 5.2 | 0.00 | 0.00 | 0.00 | 81 | 1021.6 |
| 20260903125353 | 79 | 296 | 0.9 | 5.2 | 0.00 | 0.00 | 0.00 | 81 | 1021.6 |
| 20260903125249 | 79 | 296 | 0.9 | 5.2 | 0.00 | 0.00 | 0.00 | 81 | 1021.6 |
| 20260903125150 | 79 | 328 | 0.0 | 5.2 | 0.00 | 0.00 | 0.00 | 82 | 1021.6 |
| 20260903125049 | 79 | 330 | 0.0 | 4.3 | 0.00 | 0.00 | 0.00 | 81 | 1021.6 |
| 20260903124950 | 80 | 329 | 0.0 | 3.5 | 0.00 | 0.00 | 0.00 | 81 | 1021.6 |
| 20260903124846 | 80 | 331 | 0.0 | 3.5 | 0.00 | 0.00 | 0.00 | 80 | 1021.6 |
| 20260903124745 | 80 | 327 | 0.0 | 3.5 | 0.00 | 0.00 | 0.00 | 80 | 1021.6 |
| 20260903124644 | 80 | 328 | 0.0 | 3.5 | 0.00 | 0.00 | 0.00 | 80 | 1021.6 |
| 20260903124544 | 80 | 331 | 0.0 | 3.5 | 0.00 | 0.00 | 0.00 | 80 | 1021.6 |
| 20260903124443 | 80 | 329 | 0.0 | 3.5 | 0.00 | 0.00 | 0.00 | 79 | 1021.6 |
| 20260903124340 | 81 | 326 | 0.0 | 3.5 | 0.00 | 0.00 | 0.00 | 78 | 1021.6 |
| 20260903124237 | 81 | 317 | 0.0 | 3.5 | 0.00 | 0.00 | 0.00 | 78 | 1021.6 |
| 20260903124138 | 81 | 334 | 0.0 | 3.5 | 0.00 | 0.00 | 0.00 | 78 | 1021.7 |
| 20260903124038 | 82 | 334 | 0.0 | 0.9 | 0.00 | 0.00 | 0.00 | 77 | 1021.6 |
| 20260903123938 | 82 | 336 | 0.0 | 0.0 | 0.00 | 0.00 | 0.00 | 77 | 1021.6 |
| 20260903123832 | 82 | 329 | 0.0 | 0.0 | 0.00 | 0.00 | 0.00 | 77 | 1021.6 |
| 20260903123730 | 82 | 327 | 0.0 | 0.0 | 0.00 | 0.00 | 0.00 | 77 | 1021.6 |
| 20260903123631 | 82 | 331 | 0.0 | 0.0 | 0.00 | 0.00 | 0.00 | 77 | 1021.5 |
| 20260903123531 | 83 | 313 | 0.0 | 0.0 | 0.00 | 0.00 | 0.00 | 78 | 1021.5 |
| 20260903123428 | 82 | 304 | 0.0 | 0.0 | 0.00 | 0.00 | 0.00 | 77 | 1021.4 |
| 20260903123322 | 82 | 276 | 0.0 | 0.0 | 0.00 | 0.00 | 0.00 | 74 | 1021.4 |
| 20260903123221 | 82 | 264 | 0.0 | 0.0 | 0.00 | 0.00 | 0.00 | 74 | 1021.4 |
| 20260903123123 | 82 | 264 | 0.0 | 0.0 | 0.00 | 0.00 | 0.00 | 74 | 1021.3 |
| 20260903123021 | 82 | 264 | 0.0 | 0.0 | 0.00 | 0.00 | 0.00 | 75 | 1021.4 |
| 20260903122921 | 82 | 264 | 0.0 | 0.0 | 0.00 | 0.00 | 0.00 | 75 | 1021.3 |
| 20260903122819 | 82 | 264 | 0.0 | 0.0 | 0.00 | 0.00 | 0.00 | 74 | 1021.4 |
| 20260903122715 | 82 | 264 | 0.0 | 0.0 | 0.00 | 0.00 | 0.00 | 74 | 1021.3 |
| 20260903122616 | 82 | 264 | 0.0 | 0.0 | 0.00 | 0.00 | 0.00 | 74 | 1021.3 |
| 20260903122516 | 82 | 264 | 0.0 | 0.0 | 0.00 | 0.00 | 0.00 | 75 | 1021.3 |
| 20260903122415 | 82 | 264 | 0.0 | 0.0 | 0.00 | 0.00 | 0.00 | 74 | 1021.3 |
| 20260903122306 | 82 | 264 | 0.0 | 0.0 | 0.00 | 0.00 | 0.00 | 75 | 1021.3 |
| 20260903122204 | 82 | 264 | 0.0 | 0.0 | 0.00 | 0.00 | 0.00 | 75 | 1021.4 |
| 20260903122106 | 82 | 264 | 0.0 | 0.0 | 0.00 | 0.00 | 0.00 | 75 | 1021.4 |
| 20260903122007 | 82 | 264 | 0.0 | 0.0 | 0.00 | 0.00 | 0.00 | 74 | 1021.4 |
| 20260903121906 | 82 | 264 | 0.0 | 0.0 | 0.00 | 0.00 | 0.00 | 74 | 1021.4 |
| 20260903121800 | 82 | 264 | 0.0 | 0.0 | 0.00 | 0.00 | 0.00 | 75 | 1021.4 |
| 20260903121700 | 81 | 263 | 0.0 | 0.0 | 0.00 | 0.00 | 0.00 | 76 | 1021.4 |
| 20260903121600 | 81 | 263 | 0.0 | 0.0 | 0.00 | 0.00 | 0.00 | 77 | 1021.3 |
| 20260903121459 | 81 | 263 | 0.0 | 0.0 | 0.00 | 0.00 | 0.00 | 76 | 1021.3 |
| 20260903121359 | 81 | 263 | 0.0 | 0.0 | 0.00 | 0.00 | 0.00 | 76 | 1021.3 |
| 20260903121256 | 81 | 263 | 0.0 | 0.0 | 0.00 | 0.00 | 0.00 | 76 | 1021.3 |
| 20260903121153 | 81 | 263 | 0.0 | 0.0 | 0.00 | 0.00 | 0.00 | 76 | 1021.3 |
| 20260903121054 | 81 | 263 | 0.0 | 0.0 | 0.00 | 0.00 | 0.00 | 76 | 1021.3 |
| 20260903120954 | 81 | 263 | 0.0 | 0.0 | 0.00 | 0.00 | 0.00 | 76 | 1021.3 |
| 20260903120854 | 81 | 263 | 0.0 | 0.0 | 0.00 | 0.00 | 0.00 | 77 | 1021.2 |
| 20260903120745 | 81 | 263 | 0.0 | 0.0 | 0.00 | 0.00 | 0.00 | 77 | 1021.2 |
| 20260903120643 | 81 | 263 | 0.0 | 0.0 | 0.00 | 0.00 | 0.00 | 76 | 1021.2 |
| 20260903120544 | 81 | 263 | 0.0 | 0.0 | 0.00 | 0.00 | 0.00 | 78 | 1021.2 |
| 20260903120444 | 80 | 263 | 0.0 | 0.0 | 0.00 | 0.00 | 0.00 | 78 | 1021.1 |
| 20260903120344 | 80 | 263 | 0.0 | 0.0 | 0.00 | 0.00 | 0.00 | 77 | 1021.1 |
| 20260903120240 | 80 | 263 | 0.0 | 0.0 | 0.00 | 0.00 | 0.00 | 77 | 1021.1 |
| 20260903120137 | 80 | 263 | 0.0 | 0.0 | 0.00 | 0.00 | 0.00 | 77 | 1021.1 |
| 20260903120037 | 80 | 263 | 0.0 | 0.0 | 0.00 | 0.00 | 0.00 | 77 | 1021.2 |
| 20260903115938 | 80 | 263 | 0.0 | 0.0 | 0.00 | 0.00 | 0.00 | 77 | 1021.1 |
| 20260903115838 | 80 | 263 | 0.0 | 0.0 | 0.00 | 0.00 | 0.00 | 77 | 1021.2 |
| 20260903115734 | 80 | 263 | 0.0 | 0.0 | 0.00 | 0.00 | 0.00 | 76 | 1021.2 |
| 20260903115630 | 80 | 263 | 0.0 | 0.0 | 0.00 | 0.00 | 0.00 | 76 | 1021.1 |
| 20260903115532 | 80 | 263 | 0.0 | 0.0 | 0.00 | 0.00 | 0.00 | 77 | 1021.0 |
| 20260903115432 | 80 | 263 | 0.0 | 0.0 | 0.00 | 0.00 | 0.00 | 77 | 1021.0 |
| 20260903115331 | 80 | 263 | 0.0 | 0.0 | 0.00 | 0.00 | 0.00 | 77 | 1021.1 |
| 20260903115223 | 80 | 264 | 0.0 | 0.0 | 0.00 | 0.00 | 0.00 | 77 | 1021.1 |
| 20260903115121 | 80 | 264 | 0.0 | 0.0 | 0.00 | 0.00 | 0.00 | 77 | 1021.0 |
| 20260903115022 | 80 | 263 | 0.0 | 0.0 | 0.00 | 0.00 | 0.00 | 77 | 1021.1 |
| 20260903114922 | 80 | 264 | 0.0 | 0.0 | 0.00 | 0.00 | 0.00 | 77 | 1021.1 |
| 20260903114822 | 80 | 264 | 0.0 | 0.0 | 0.00 | 0.00 | 0.00 | 76 | 1021.1 |
| 20260903114718 | 80 | 264 | 0.0 | 0.0 | 0.00 | 0.00 | 0.00 | 76 | 1021.1 |
| 20260903114614 | 80 | 264 | 0.0 | 0.0 | 0.00 | 0.00 | 0.00 | 76 | 1021.1 |
| 20260903114515 | 80 | 264 | 0.0 | 0.0 | 0.00 | 0.00 | 0.00 | 76 | 1021.1 |
| 20260903114416 | 80 | 264 | 0.0 | 0.0 | 0.00 | 0.00 | 0.00 | 76 | 1021.1 |
| 20260903114316 | 80 | 264 | 0.0 | 0.0 | 0.00 | 0.00 | 0.00 | 76 | 1021.1 |
| 20260903114212 | 80 | 264 | 0.0 | 0.0 | 0.00 | 0.00 | 0.00 | 76 | 1021.0 |
| 20260903114109 | 80 | 264 | 0.0 | 0.0 | 0.00 | 0.00 | 0.00 | 76 | 1021.0 |
| 20260903114010 | 80 | 264 | 0.0 | 0.0 | 0.00 | 0.00 | 0.00 | 76 | 1020.9 |
| 20260903113909 | 80 | 264 | 0.0 | 0.0 | 0.00 | 0.00 | 0.00 | 76 | 1021.0 |
| 20260903113809 | 80 | 264 | 0.0 | 0.0 | 0.00 | 0.00 | 0.00 | 76 | 1021.0 |
| 20260903113659 | 80 | 264 | 0.0 | 0.0 | 0.00 | 0.00 | 0.00 | 76 | 1020.9 |
| 20260903113558 | 80 | 264 | 0.0 | 0.0 | 0.00 | 0.00 | 0.00 | 76 | 1020.9 |
| 20260903113500 | 80 | 264 | 0.0 | 0.0 | 0.00 | 0.00 | 0.00 | 76 | 1021.0 |
| 20260903113358 | 80 | 264 | 0.0 | 0.0 | 0.00 | 0.00 | 0.00 | 76 | 1021.0 |
| 20260903113300 | 80 | 264 | 0.0 | 0.0 | 0.00 | 0.00 | 0.00 | 76 | 1020.9 |
| 20260903113156 | 80 | 264 | 0.0 | 0.0 | 0.00 | 0.00 | 0.00 | 76 | 1020.9 |
| 20260903113053 | 80 | 264 | 0.0 | 0.0 | 0.00 | 0.00 | 0.00 | 76 | 1020.9 |
| 20260903112952 | 80 | 264 | 0.0 | 0.0 | 0.00 | 0.00 | 0.00 | 77 | 1020.9 |
| 20260903112853 | 79 | 264 | 0.0 | 0.0 | 0.00 | 0.00 | 0.00 | 76 | 1020.8 |
| 20260903112754 | 79 | 262 | 0.0 | 0.0 | 0.00 | 0.00 | 0.00 | 76 | 1020.8 |
| 20260903112650 | 79 | 261 | 0.0 | 0.0 | 0.00 | 0.00 | 0.00 | 76 | 1020.8 |
| 20260903112547 | 79 | 261 | 0.0 | 0.0 | 0.00 | 0.00 | 0.00 | 76 | 1020.8 |
| 20260903112448 | 79 | 261 | 0.0 | 0.0 | 0.00 | 0.00 | 0.00 | 76 | 1020.7 |
| 20260903112346 | 79 | 259 | 0.0 | 0.0 | 0.00 | 0.00 | 0.00 | 76 | 1020.8 |
| 20260903112249 | 79 | 246 | 0.0 | 0.0 | 0.00 | 0.00 | 0.00 | 76 | 1020.7 |
| 20260903112139 | 79 | 257 | 0.0 | 0.0 | 0.00 | 0.00 | 0.00 | 76 | 1020.7 |
| 20260903112037 | 79 | 248 | 0.0 | 0.0 | 0.00 | 0.00 | 0.00 | 76 | 1020.8 |
| 20260903111938 | 79 | 259 | 0.0 | 0.0 | 0.00 | 0.00 | 0.00 | 76 | 1020.7 |
| 20260903111836 | 79 | 261 | 0.0 | 0.0 | 0.00 | 0.00 | 0.00 | 76 | 1020.8 |
| 20260903111738 | 79 | 261 | 0.0 | 0.0 | 0.00 | 0.00 | 0.00 | 76 | 1020.8 |
| 20260903111635 | 79 | 261 | 0.0 | 0.0 | 0.00 | 0.00 | 0.00 | 76 | 1020.7 |
| 20260903111536 | 79 | 226 | 0.0 | 0.0 | 0.00 | 0.00 | 0.00 | 76 | 1020.7 |
| 20260903111433 | 79 | 244 | 0.0 | 0.0 | 0.00 | 0.00 | 0.00 | 76 | 1020.8 |
| 20260903111333 | 79 | 256 | 0.0 | 0.0 | 0.00 | 0.00 | 0.00 | 76 | 1020.8 |
| 20260903111232 | 79 | 258 | 0.0 | 0.0 | 0.00 | 0.00 | 0.00 | 76 | 1020.7 |
| 20260903111130 | 79 | 258 | 0.0 | 0.0 | 0.00 | 0.00 | 0.00 | 76 | 1020.7 |
| 20260903111030 | 79 | 259 | 0.0 | 0.0 | 0.00 | 0.00 | 0.00 | 76 | 1020.7 |
| 20260903110926 | 79 | 259 | 0.0 | 0.0 | 0.00 | 0.00 | 0.00 | 76 | 1020.7 |
| 20260903110828 | 78 | 259 | 0.0 | 0.0 | 0.00 | 0.00 | 0.00 | 76 | 1020.7 |
| 20260903110725 | 78 | 259 | 0.0 | 0.0 | 0.00 | 0.00 | 0.00 | 76 | 1020.7 |
| 20260903110618 | 78 | 259 | 0.0 | 0.0 | 0.00 | 0.00 | 0.00 | 76 | 1020.7 |
| 20260903110519 | 78 | 259 | 0.0 | 0.0 | 0.00 | 0.00 | 0.00 | 76 | 1020.7 |
| 20260903110420 | 78 | 259 | 0.0 | 0.0 | 0.00 | 0.00 | 0.00 | 76 | 1020.7 |
| 20260903110318 | 78 | 259 | 0.0 | 0.0 | 0.00 | 0.00 | 0.00 | 77 | 1020.7 |
| 20260903110215 | 78 | 259 | 0.0 | 0.0 | 0.00 | 0.00 | 0.00 | 77 | 1020.7 |
| 20260903110110 | 78 | 259 | 0.0 | 0.0 | 0.00 | 0.00 | 0.00 | 76 | 1020.7 |
| 20260903110010 | 78 | 259 | 0.0 | 0.0 | 0.00 | 0.00 | 0.00 | 76 | 1020.7 |
| 20260903105909 | 78 | 259 | 0.0 | 0.0 | 0.00 | 0.00 | 0.00 | 76 | 1020.7 |
| 20260903105809 | 78 | 259 | 0.0 | 0.0 | 0.00 | 0.00 | 0.00 | 76 | 1020.6 |
| 20260903105709 | 78 | 259 | 0.0 | 0.0 | 0.00 | 0.00 | 0.00 | 76 | 1020.7 |
| 20260903105605 | 78 | 259 | 0.0 | 0.0 | 0.00 | 0.00 | 0.00 | 76 | 1020.7 |
| 20260903105504 | 78 | 259 | 0.0 | 0.0 | 0.00 | 0.00 | 0.00 | 76 | 1020.7 |
| 20260903105404 | 78 | 259 | 0.0 | 0.0 | 0.00 | 0.00 | 0.00 | 77 | 1020.7 |
| 20260903105306 | 78 | 259 | 0.0 | 0.0 | 0.00 | 0.00 | 0.00 | 77 | 1020.7 |
| 20260903105204 | 78 | 259 | 0.0 | 0.0 | 0.00 | 0.00 | 0.00 | 77 | 1020.7 |
| 20260903105056 | 78 | 259 | 0.0 | 0.0 | 0.00 | 0.00 | 0.00 | 77 | 1020.7 |
| 20260903104958 | 78 | 259 | 0.0 | 0.0 | 0.00 | 0.00 | 0.00 | 77 | 1020.7 |
| 20260903104858 | 78 | 259 | 0.0 | 0.0 | 0.00 | 0.00 | 0.00 | 77 | 1020.7 |
| 20260903104755 | 78 | 259 | 0.0 | 0.0 | 0.00 | 0.00 | 0.00 | 77 | 1020.7 |
| 20260903104654 | 78 | 259 | 0.0 | 0.0 | 0.00 | 0.00 | 0.00 | 77 | 1020.7 |
| 20260903104553 | 78 | 259 | 0.0 | 0.0 | 0.00 | 0.00 | 0.00 | 77 | 1020.6 |
| 20260903104450 | 78 | 259 | 0.0 | 0.0 | 0.00 | 0.00 | 0.00 | 77 | 1020.6 |
| 20260903104352 | 78 | 259 | 0.0 | 0.0 | 0.00 | 0.00 | 0.00 | 77 | 1020.7 |
| 20260903104249 | 78 | 259 | 0.0 | 0.0 | 0.00 | 0.00 | 0.00 | 77 | 1020.6 |
| 20260903104148 | 78 | 259 | 0.0 | 0.0 | 0.00 | 0.00 | 0.00 | 77 | 1020.6 |
| 20260903104047 | 78 | 259 | 0.0 | 0.0 | 0.00 | 0.00 | 0.00 | 77 | 1020.6 |
| 20260903103946 | 78 | 259 | 0.0 | 0.0 | 0.00 | 0.00 | 0.00 | 77 | 1020.7 |
| 20260903103845 | 78 | 259 | 0.0 | 0.0 | 0.00 | 0.00 | 0.00 | 77 | 1020.7 |
| 20260903103744 | 78 | 259 | 0.0 | 0.0 | 0.00 | 0.00 | 0.00 | 77 | 1020.6 |
| 20260903103641 | 78 | 259 | 0.0 | 0.0 | 0.00 | 0.00 | 0.00 | 77 | 1020.6 |
| 20260903103535 | 78 | 259 | 0.0 | 0.0 | 0.00 | 0.00 | 0.00 | 77 | 1020.6 |
| 20260903103435 | 78 | 259 | 0.0 | 0.0 | 0.00 | 0.00 | 0.00 | 77 | 1020.6 |
| 20260903103336 | 78 | 259 | 0.0 | 0.0 | 0.00 | 0.00 | 0.00 | 77 | 1020.6 |
| 20260903103234 | 78 | 259 | 0.0 | 0.0 | 0.00 | 0.00 | 0.00 | 77 | 1020.6 |
| 20260903103132 | 78 | 259 | 0.0 | 0.0 | 0.00 | 0.00 | 0.00 | 77 | 1020.6 |
| 20260903103030 | 78 | 259 | 0.0 | 0.0 | 0.00 | 0.00 | 0.00 | 77 | 1020.6 |
| 20260903102929 | 78 | 259 | 0.0 | 0.0 | 0.00 | 0.00 | 0.00 | 77 | 1020.6 |
| 20260903102830 | 78 | 259 | 0.0 | 0.0 | 0.00 | 0.00 | 0.00 | 77 | 1020.6 |
| 20260903102727 | 78 | 259 | 0.0 | 0.0 | 0.00 | 0.00 | 0.00 | 77 | 1020.6 |
| 20260903102626 | 78 | 259 | 0.0 | 0.0 | 0.00 | 0.00 | 0.00 | 77 | 1020.6 |
| 20260903102525 | 78 | 259 | 0.0 | 0.0 | 0.00 | 0.00 | 0.00 | 77 | 1020.6 |
| 20260903102424 | 78 | 259 | 0.0 | 0.0 | 0.00 | 0.00 | 0.00 | 77 | 1020.5 |
| 20260903102321 | 78 | 259 | 0.0 | 0.0 | 0.00 | 0.00 | 0.00 | 77 | 1020.5 |
| 20260903102222 | 78 | 259 | 0.0 | 0.0 | 0.00 | 0.00 | 0.00 | 77 | 1020.5 |
| 20260903102120 | 78 | 259 | 0.0 | 0.0 | 0.00 | 0.00 | 0.00 | 77 | 1020.6 |
| 20260903102012 | 78 | 259 | 0.0 | 0.0 | 0.00 | 0.00 | 0.00 | 77 | 1020.5 |
| 20260903101910 | 78 | 259 | 0.0 | 0.0 | 0.00 | 0.00 | 0.00 | 77 | 1020.5 |
| 20260903101810 | 78 | 259 | 0.0 | 0.0 | 0.00 | 0.00 | 0.00 | 77 | 1020.5 |
| 20260903101709 | 78 | 259 | 0.0 | 0.0 | 0.00 | 0.00 | 0.00 | 77 | 1020.5 |
| 20260903101610 | 78 | 259 | 0.0 | 0.0 | 0.00 | 0.00 | 0.00 | 77 | 1020.5 |
| 20260903101505 | 78 | 259 | 0.0 | 0.0 | 0.00 | 0.00 | 0.00 | 77 | 1020.4 |
| 20260903101402 | 78 | 259 | 0.0 | 0.0 | 0.00 | 0.00 | 0.00 | 77 | 1020.4 |
| 20260903101303 | 78 | 259 | 0.0 | 0.0 | 0.00 | 0.00 | 0.00 | 77 | 1020.4 |
| 20260903101203 | 78 | 259 | 0.0 | 0.0 | 0.00 | 0.00 | 0.00 | 77 | 1020.4 |
| 20260903101104 | 78 | 259 | 0.0 | 0.0 | 0.00 | 0.00 | 0.00 | 77 | 1020.4 |
| 20260903101000 | 78 | 259 | 0.0 | 0.0 | 0.00 | 0.00 | 0.00 | 77 | 1020.4 |
| 20260903100856 | 78 | 259 | 0.0 | 0.0 | 0.00 | 0.00 | 0.00 | 77 | 1020.4 |
| 20260903100758 | 78 | 259 | 0.0 | 0.0 | 0.00 | 0.00 | 0.00 | 77 | 1020.5 |
| 20260903100658 | 78 | 259 | 0.0 | 0.0 | 0.00 | 0.00 | 0.00 | 77 | 1020.4 |
| 20260903100559 | 78 | 259 | 0.0 | 0.0 | 0.00 | 0.00 | 0.00 | 77 | 1020.4 |
| 20260903100450 | 78 | 259 | 0.0 | 0.0 | 0.00 | 0.00 | 0.00 | 77 | 1020.4 |
| 20260903100347 | 78 | 259 | 0.0 | 0.0 | 0.00 | 0.00 | 0.00 | 77 | 1020.4 |
| 20260903100247 | 78 | 259 | 0.0 | 0.0 | 0.00 | 0.00 | 0.00 | 77 | 1020.4 |
| 20260903100148 | 78 | 259 | 0.0 | 0.0 | 0.00 | 0.00 | 0.00 | 77 | 1020.5 |
| 20260903100047 | 78 | 259 | 0.0 | 0.0 | 0.00 | 0.00 | 0.00 | 77 | 1020.4 |
| 20260903095948 | 78 | 259 | 0.0 | 0.0 | 0.00 | 0.00 | 0.00 | 77 | 1020.4 |
| 20260903095845 | 78 | 259 | 0.0 | 0.0 | 0.00 | 0.00 | 0.00 | 77 | 1020.4 |
| 20260903095746 | 78 | 259 | 0.0 | 0.0 | 0.00 | 0.00 | 0.00 | 77 | 1020.4 |
| 20260903095644 | 78 | 259 | 0.0 | 0.0 | 0.00 | 0.00 | 0.00 | 77 | 1020.4 |
| 20260903095542 | 78 | 259 | 0.0 | 0.0 | 0.00 | 0.00 | 0.00 | 77 | 1020.4 |
| 20260903095441 | 78 | 259 | 0.0 | 0.0 | 0.00 | 0.00 | 0.00 | 77 | 1020.3 |
| 20260903095339 | 78 | 259 | 0.0 | 0.0 | 0.00 | 0.00 | 0.00 | 77 | 1020.4 |
| 20260903095239 | 78 | 259 | 0.0 | 0.0 | 0.00 | 0.00 | 0.00 | 77 | 1020.3 |
| 20260903095138 | 78 | 259 | 0.0 | 0.0 | 0.00 | 0.00 | 0.00 | 77 | 1020.4 |
| 20260903095036 | 78 | 259 | 0.0 | 0.0 | 0.00 | 0.00 | 0.00 | 77 | 1020.4 |
| 20260903094935 | 78 | 259 | 0.0 | 0.0 | 0.00 | 0.00 | 0.00 | 77 | 1020.4 |
| 20260903094833 | 78 | 259 | 0.0 | 0.0 | 0.00 | 0.00 | 0.00 | 77 | 1020.3 |
| 20260903094734 | 78 | 259 | 0.0 | 0.0 | 0.00 | 0.00 | 0.00 | 77 | 1020.4 |
| 20260903094631 | 78 | 259 | 0.0 | 0.0 | 0.00 | 0.00 | 0.00 | 77 | 1020.4 |
| 20260903094532 | 78 | 259 | 0.0 | 0.0 | 0.00 | 0.00 | 0.00 | 77 | 1020.4 |
| 20260903094429 | 78 | 259 | 0.0 | 0.0 | 0.00 | 0.00 | 0.00 | 77 | 1020.4 |
| 20260903094327 | 78 | 259 | 0.0 | 0.0 | 0.00 | 0.00 | 0.00 | 77 | 1020.4 |
| 20260903094226 | 78 | 259 | 0.0 | 0.0 | 0.00 | 0.00 | 0.00 | 77 | 1020.4 |
| 20260903094125 | 78 | 259 | 0.0 | 0.0 | 0.00 | 0.00 | 0.00 | 77 | 1020.4 |
| 20260903094026 | 78 | 259 | 0.0 | 0.0 | 0.00 | 0.00 | 0.00 | 77 | 1020.4 |
| 20260903093923 | 78 | 259 | 0.0 | 0.0 | 0.00 | 0.00 | 0.00 | 77 | 1020.4 |
| 20260903093821 | 78 | 259 | 0.0 | 0.0 | 0.00 | 0.00 | 0.00 | 77 | 1020.4 |
| 20260903093719 | 78 | 259 | 0.0 | 0.0 | 0.00 | 0.00 | 0.00 | 77 | 1020.4 |
| 20260903093618 | 78 | 252 | 0.0 | 0.0 | 0.00 | 0.00 | 0.00 | 77 | 1020.4 |
| 20260903093520 | 78 | 249 | 0.0 | 0.0 | 0.00 | 0.00 | 0.00 | 77 | 1020.3 |
| 20260903093418 | 78 | 202 | 0.0 | 0.0 | 0.00 | 0.00 | 0.00 | 77 | 1020.4 |
| 20260903093315 | 78 | 196 | 0.0 | 0.0 | 0.00 | 0.00 | 0.00 | 77 | 1020.4 |
| 20260903093213 | 78 | 196 | 0.0 | 0.0 | 0.00 | 0.00 | 0.00 | 77 | 1020.2 |
| 20260903093114 | 78 | 196 | 0.0 | 0.0 | 0.00 | 0.00 | 0.00 | 77 | 1020.2 |
| 20260903093012 | 78 | 196 | 0.0 | 0.0 | 0.00 | 0.00 | 0.00 | 77 | 1020.3 |
| 20260903092912 | 78 | 196 | 0.0 | 0.0 | 0.00 | 0.00 | 0.00 | 78 | 1020.3 |
| 20260903092809 | 78 | 196 | 0.0 | 0.0 | 0.00 | 0.00 | 0.00 | 78 | 1020.2 |
| 20260903092710 | 78 | 196 | 0.0 | 0.0 | 0.00 | 0.00 | 0.00 | 78 | 1020.2 |
| 20260903092608 | 78 | 196 | 0.0 | 0.0 | 0.00 | 0.00 | 0.00 | 78 | 1020.2 |
| 20260903092506 | 78 | 196 | 0.0 | 0.0 | 0.00 | 0.00 | 0.00 | 78 | 1020.3 |
| 20260903092407 | 78 | 196 | 0.0 | 0.0 | 0.00 | 0.00 | 0.00 | 78 | 1020.3 |
| 20260903092308 | 77 | 196 | 0.0 | 0.0 | 0.00 | 0.00 | 0.00 | 78 | 1020.2 |
| 20260903092206 | 77 | 196 | 0.0 | 0.0 | 0.00 | 0.00 | 0.00 | 78 | 1020.3 |
| 20260903092107 | 77 | 196 | 0.0 | 0.0 | 0.00 | 0.00 | 0.00 | 78 | 1020.3 |
| 20260903092006 | 77 | 196 | 0.0 | 0.0 | 0.00 | 0.00 | 0.00 | 78 | 1020.4 |
| 20260903091908 | 77 | 196 | 0.0 | 0.0 | 0.00 | 0.00 | 0.00 | 78 | 1020.3 |
| 20260903091806 | 77 | 196 | 0.0 | 0.0 | 0.00 | 0.00 | 0.00 | 78 | 1020.2 |
| 20260903091705 | 77 | 196 | 0.0 | 0.0 | 0.00 | 0.00 | 0.00 | 78 | 1020.2 |
| 20260903091606 | 77 | 196 | 0.0 | 0.0 | 0.00 | 0.00 | 0.00 | 78 | 1020.2 |
| 20260903091505 | 77 | 196 | 0.0 | 0.0 | 0.00 | 0.00 | 0.00 | 78 | 1020.3 |
| 20260903091405 | 77 | 196 | 0.0 | 0.0 | 0.00 | 0.00 | 0.00 | 78 | 1020.3 |
| 20260903091306 | 77 | 196 | 0.0 | 0.0 | 0.00 | 0.00 | 0.00 | 78 | 1020.3 |
| 20260903091204 | 77 | 196 | 0.0 | 0.0 | 0.00 | 0.00 | 0.00 | 78 | 1020.3 |
| 20260903091106 | 77 | 196 | 0.0 | 0.0 | 0.00 | 0.00 | 0.00 | 78 | 1020.3 |
| 20260903091003 | 77 | 196 | 0.0 | 0.0 | 0.00 | 0.00 | 0.00 | 78 | 1020.3 |
| 20260903090903 | 77 | 196 | 0.0 | 0.0 | 0.00 | 0.00 | 0.00 | 79 | 1020.3 |
| 20260903090802 | 77 | 196 | 0.0 | 0.0 | 0.00 | 0.00 | 0.00 | 79 | 1020.3 |
| 20260903090703 | 77 | 196 | 0.0 | 0.0 | 0.00 | 0.00 | 0.00 | 79 | 1020.3 |
| 20260903090603 | 77 | 196 | 0.0 | 0.0 | 0.00 | 0.00 | 0.00 | 79 | 1020.4 |
| 20260903090503 | 77 | 196 | 0.0 | 0.0 | 0.00 | 0.00 | 0.00 | 79 | 1020.2 |
| 20260903090403 | 77 | 196 | 0.0 | 0.0 | 0.00 | 0.00 | 0.00 | 79 | 1020.3 |
| 20260903090303 | 77 | 196 | 0.0 | 0.0 | 0.00 | 0.00 | 0.00 | 79 | 1020.3 |
| 20260903090203 | 77 | 196 | 0.0 | 0.0 | 0.00 | 0.00 | 0.00 | 79 | 1020.3 |
| 20260903090004 | 77 | 196 | 0.0 | 0.0 | 0.00 | 0.00 | 0.00 | 79 | 1020.3 |
| 20260903085903 | 77 | 196 | 0.0 | 0.0 | 0.00 | 0.00 | 0.00 | 79 | 1020.2 |
| 20260903085803 | 77 | 196 | 0.0 | 0.0 | 0.00 | 0.00 | 0.00 | 79 | 1020.2 |
| 20260903085703 | 77 | 196 | 0.0 | 0.0 | 0.00 | 0.00 | 0.00 | 79 | 1020.2 |
| 20260903085602 | 77 | 196 | 0.0 | 0.0 | 0.00 | 0.00 | 0.00 | 79 | 1020.2 |
| 20260903085504 | 77 | 196 | 0.0 | 0.0 | 0.00 | 0.00 | 0.00 | 79 | 1020.2 |
| 20260903085402 | 77 | 196 | 0.0 | 0.0 | 0.00 | 0.00 | 0.00 | 79 | 1020.2 |
| 20260903085305 | 78 | 196 | 0.0 | 0.0 | 0.00 | 0.00 | 0.00 | 79 | 1020.2 |
| 20260903085202 | 78 | 196 | 0.0 | 0.0 | 0.00 | 0.00 | 0.00 | 79 | 1020.3 |
| 20260903085103 | 78 | 196 | 0.0 | 0.0 | 0.00 | 0.00 | 0.00 | 79 | 1020.2 |
| 20260903085003 | 78 | 196 | 0.0 | 0.0 | 0.00 | 0.00 | 0.00 | 79 | 1020.2 |
| 20260903084903 | 77 | 196 | 0.0 | 0.0 | 0.00 | 0.00 | 0.00 | 79 | 1020.2 |
| 20260903084803 | 77 | 196 | 0.0 | 0.0 | 0.00 | 0.00 | 0.00 | 79 | 1020.2 |
| 20260903084703 | 78 | 196 | 0.0 | 0.0 | 0.00 | 0.00 | 0.00 | 80 | 1020.3 |
| 20260903084603 | 77 | 196 | 0.0 | 0.0 | 0.00 | 0.00 | 0.00 | 80 | 1020.2 |
| 20260903084502 | 78 | 196 | 0.0 | 0.0 | 0.00 | 0.00 | 0.00 | 80 | 1020.2 |
| 20260903084403 | 77 | 196 | 0.0 | 0.0 | 0.00 | 0.00 | 0.00 | 80 | 1020.2 |
| 20260903084301 | 77 | 196 | 0.0 | 0.0 | 0.00 | 0.00 | 0.00 | 80 | 1020.2 |
| 20260903084202 | 77 | 196 | 0.0 | 0.0 | 0.00 | 0.00 | 0.00 | 80 | 1020.2 |
| 20260903084100 | 77 | 196 | 0.0 | 0.0 | 0.00 | 0.00 | 0.00 | 80 | 1020.2 |
| 20260903084002 | 77 | 196 | 0.0 | 0.0 | 0.00 | 0.00 | 0.00 | 80 | 1020.2 |
| 20260903083901 | 77 | 196 | 0.0 | 0.0 | 0.00 | 0.00 | 0.00 | 80 | 1020.0 |
| 20260903083800 | 77 | 196 | 0.0 | 0.0 | 0.00 | 0.00 | 0.00 | 80 | 1020.2 |
| 20260903083658 | 77 | 196 | 0.0 | 0.0 | 0.00 | 0.00 | 0.00 | 80 | 1020.0 |
| 20260903083558 | 77 | 196 | 0.0 | 0.0 | 0.00 | 0.00 | 0.00 | 80 | 1020.0 |
| 20260903083454 | 77 | 196 | 0.0 | 0.0 | 0.00 | 0.00 | 0.00 | 80 | 1020.0 |
| 20260903083354 | 77 | 196 | 0.0 | 0.0 | 0.00 | 0.00 | 0.00 | 80 | 1020.0 |
| 20260903083256 | 77 | 196 | 0.0 | 0.0 | 0.00 | 0.00 | 0.00 | 80 | 1020.0 |
| 20260903083153 | 77 | 196 | 0.0 | 0.0 | 0.00 | 0.00 | 0.00 | 80 | 1020.0 |
| 20260903083048 | 77 | 196 | 0.0 | 0.0 | 0.00 | 0.00 | 0.00 | 80 | 1020.0 |
| 20260903082948 | 77 | 196 | 0.0 | 0.0 | 0.00 | 0.00 | 0.00 | 80 | 1020.0 |
| 20260903082847 | 77 | 196 | 0.0 | 0.0 | 0.00 | 0.00 | 0.00 | 80 | 1020.0 |
| 20260903082748 | 77 | 196 | 0.0 | 0.0 | 0.00 | 0.00 | 0.00 | 80 | 1020.0 |
| 20260903082648 | 77 | 196 | 0.0 | 0.0 | 0.00 | 0.00 | 0.00 | 80 | 1020.0 |
| 20260903082546 | 77 | 196 | 0.0 | 0.0 | 0.00 | 0.00 | 0.00 | 80 | 1019.9 |
| 20260903082444 | 77 | 196 | 0.0 | 0.0 | 0.00 | 0.00 | 0.00 | 80 | 1020.0 |
| 20260903082345 | 77 | 196 | 0.0 | 0.0 | 0.00 | 0.00 | 0.00 | 80 | 1019.9 |
| 20260903082242 | 77 | 196 | 0.0 | 0.0 | 0.00 | 0.00 | 0.00 | 80 | 1020.0 |
| 20260903082142 | 77 | 196 | 0.0 | 0.0 | 0.00 | 0.00 | 0.00 | 80 | 1020.0 |
| 20260903082038 | 77 | 196 | 0.0 | 0.0 | 0.00 | 0.00 | 0.00 | 80 | 1020.2 |
| 20260903081936 | 77 | 196 | 0.0 | 0.0 | 0.00 | 0.00 | 0.00 | 80 | 1020.0 |
| 20260903081834 | 77 | 196 | 0.0 | 0.0 | 0.00 | 0.00 | 0.00 | 80 | 1020.0 |
| 20260903081734 | 77 | 196 | 0.0 | 0.0 | 0.00 | 0.00 | 0.00 | 80 | 1020.0 |
| 20260903081633 | 77 | 196 | 0.0 | 0.0 | 0.00 | 0.00 | 0.00 | 80 | 1020.2 |
| 20260903081533 | 77 | 196 | 0.0 | 0.0 | 0.00 | 0.00 | 0.00 | 80 | 1020.0 |
| 20260903081433 | 77 | 196 | 0.0 | 0.0 | 0.00 | 0.00 | 0.00 | 80 | 1020.0 |
| 20260903081332 | 77 | 196 | 0.0 | 0.0 | 0.00 | 0.00 | 0.00 | 80 | 1019.9 |
| 20260903081232 | 77 | 196 | 0.0 | 0.0 | 0.00 | 0.00 | 0.00 | 80 | 1020.0 |
| 20260903081130 | 77 | 196 | 0.0 | 0.0 | 0.00 | 0.00 | 0.00 | 80 | 1020.0 |
| 20260903081031 | 77 | 196 | 0.0 | 0.0 | 0.00 | 0.00 | 0.00 | 80 | 1019.9 |
| 20260903080929 | 77 | 196 | 0.0 | 0.0 | 0.00 | 0.00 | 0.00 | 80 | 1020.0 |
| 20260903080829 | 77 | 196 | 0.0 | 0.0 | 0.00 | 0.00 | 0.00 | 80 | 1020.0 |
| 20260903080728 | 77 | 196 | 0.0 | 0.0 | 0.00 | 0.00 | 0.00 | 80 | 1020.0 |
| 20260903080628 | 77 | 196 | 0.0 | 0.0 | 0.00 | 0.00 | 0.00 | 80 | 1020.0 |
| 20260903080528 | 77 | 196 | 0.0 | 0.0 | 0.00 | 0.00 | 0.00 | 81 | 1020.0 |
| 20260903080428 | 77 | 196 | 0.0 | 0.0 | 0.00 | 0.00 | 0.00 | 81 | 1020.2 |
| 20260903080329 | 77 | 196 | 0.0 | 0.0 | 0.00 | 0.00 | 0.00 | 81 | 1020.0 |
| 20260903080230 | 77 | 196 | 0.0 | 0.0 | 0.00 | 0.00 | 0.00 | 81 | 1020.0 |
| 20260903080129 | 77 | 196 | 0.0 | 0.0 | 0.00 | 0.00 | 0.00 | 81 | 1020.0 |
| 20260903080028 | 77 | 196 | 0.0 | 0.0 | 0.00 | 0.00 | 0.00 | 81 | 1020.0 |
| 20260903075928 | 77 | 196 | 0.0 | 0.0 | 0.00 | 0.00 | 0.00 | 81 | 1019.9 |
| 20260903075830 | 77 | 196 | 0.0 | 0.0 | 0.00 | 0.00 | 0.00 | 81 | 1020.0 |
| 20260903075728 | 77 | 196 | 0.0 | 0.0 | 0.00 | 0.00 | 0.00 | 81 | 1019.8 |
| 20260903075629 | 77 | 196 | 0.0 | 0.0 | 0.00 | 0.00 | 0.00 | 81 | 1019.9 |
| 20260903075528 | 77 | 196 | 0.0 | 0.0 | 0.00 | 0.00 | 0.00 | 81 | 1019.8 |
| 20260903075429 | 77 | 196 | 0.0 | 0.0 | 0.00 | 0.00 | 0.00 | 80 | 1019.8 |
| 20260903075328 | 77 | 196 | 0.0 | 0.0 | 0.00 | 0.00 | 0.00 | 80 | 1019.8 |
| 20260903075229 | 77 | 196 | 0.0 | 0.0 | 0.00 | 0.00 | 0.00 | 80 | 1019.8 |
| 20260903075129 | 77 | 196 | 0.0 | 0.0 | 0.00 | 0.00 | 0.00 | 80 | 1019.8 |
| 20260903075030 | 77 | 196 | 0.0 | 0.0 | 0.00 | 0.00 | 0.00 | 80 | 1019.7 |
| 20260903074929 | 77 | 196 | 0.0 | 0.0 | 0.00 | 0.00 | 0.00 | 80 | 1019.7 |
| 20260903074830 | 77 | 196 | 0.0 | 0.0 | 0.00 | 0.00 | 0.00 | 80 | 1019.8 |
| 20260903074729 | 77 | 196 | 0.0 | 0.0 | 0.00 | 0.00 | 0.00 | 80 | 1019.7 |
| 20260903074629 | 77 | 196 | 0.0 | 0.0 | 0.00 | 0.00 | 0.00 | 80 | 1019.8 |
| 20260903074530 | 77 | 196 | 0.0 | 0.0 | 0.00 | 0.00 | 0.00 | 81 | 1019.9 |
| 20260903074428 | 77 | 196 | 0.0 | 0.0 | 0.00 | 0.00 | 0.00 | 81 | 1019.9 |
| 20260903074331 | 77 | 196 | 0.0 | 0.0 | 0.00 | 0.00 | 0.00 | 80 | 1019.9 |
| 20260903074226 | 77 | 196 | 0.0 | 0.0 | 0.00 | 0.00 | 0.00 | 81 | 1019.9 |
| 20260903074125 | 77 | 196 | 0.0 | 0.0 | 0.00 | 0.00 | 0.00 | 81 | 1019.9 |
| 20260903074025 | 77 | 196 | 0.0 | 0.0 | 0.00 | 0.00 | 0.00 | 81 | 1019.9 |
| 20260903073924 | 77 | 196 | 0.0 | 0.0 | 0.00 | 0.00 | 0.00 | 81 | 1019.9 |
| 20260903073826 | 77 | 196 | 0.0 | 0.0 | 0.00 | 0.00 | 0.00 | 81 | 1019.9 |
| 20260903073726 | 77 | 196 | 0.0 | 0.0 | 0.00 | 0.00 | 0.00 | 81 | 1019.9 |
| 20260903073624 | 77 | 196 | 0.0 | 0.0 | 0.00 | 0.00 | 0.00 | 81 | 1020.0 |
| 20260903073533 | 77 | 196 | 0.0 | 0.0 | 0.00 | 0.00 | 0.00 | 81 | 1020.0 |
| 20260903073424 | 77 | 196 | 0.0 | 0.0 | 0.00 | 0.00 | 0.00 | 81 | 1020.0 |
| 20260903073326 | 77 | 196 | 0.0 | 0.0 | 0.00 | 0.00 | 0.00 | 81 | 1020.0 |
| 20260903073224 | 77 | 196 | 0.0 | 0.0 | 0.00 | 0.00 | 0.00 | 81 | 1019.9 |
| 20260903073126 | 77 | 196 | 0.0 | 0.0 | 0.00 | 0.00 | 0.00 | 81 | 1020.0 |
| 20260903073025 | 77 | 196 | 0.0 | 0.0 | 0.00 | 0.00 | 0.00 | 81 | 1020.0 |
| 20260903072926 | 77 | 196 | 0.0 | 0.0 | 0.00 | 0.00 | 0.00 | 81 | 1020.2 |
| 20260903072825 | 77 | 196 | 0.0 | 0.0 | 0.00 | 0.00 | 0.00 | 81 | 1020.0 |
| 20260903072724 | 77 | 196 | 0.0 | 0.0 | 0.00 | 0.00 | 0.00 | 81 | 1020.0 |
| 20260903072626 | 77 | 196 | 0.0 | 0.0 | 0.00 | 0.00 | 0.00 | 81 | 1020.0 |
| 20260903072525 | 77 | 196 | 0.0 | 0.0 | 0.00 | 0.00 | 0.00 | 81 | 1020.0 |
| 20260903072425 | 77 | 196 | 0.0 | 0.0 | 0.00 | 0.00 | 0.00 | 81 | 1020.0 |
| 20260903072325 | 77 | 196 | 0.0 | 0.0 | 0.00 | 0.00 | 0.00 | 81 | 1020.0 |
| 20260903072224 | 77 | 196 | 0.0 | 0.0 | 0.00 | 0.00 | 0.00 | 81 | 1019.9 |
| 20260903072124 | 77 | 196 | 0.0 | 0.0 | 0.00 | 0.00 | 0.00 | 81 | 1020.0 |
| 20260903072025 | 77 | 196 | 0.0 | 0.0 | 0.00 | 0.00 | 0.00 | 81 | 1020.0 |
| 20260903071925 | 77 | 196 | 0.0 | 0.0 | 0.00 | 0.00 | 0.00 | 81 | 1019.9 |
| 20260903071826 | 77 | 196 | 0.0 | 0.0 | 0.00 | 0.00 | 0.00 | 81 | 1019.9 |
| 20260903071726 | 77 | 196 | 0.0 | 0.0 | 0.00 | 0.00 | 0.00 | 81 | 1019.9 |
| 20260903071616 | 77 | 196 | 0.0 | 0.0 | 0.00 | 0.00 | 0.00 | 81 | 1019.8 |
| 20260903071517 | 77 | 196 | 0.0 | 0.0 | 0.00 | 0.00 | 0.00 | 81 | 1019.9 |
| 20260903071416 | 77 | 196 | 0.0 | 0.0 | 0.00 | 0.00 | 0.00 | 81 | 1019.9 |
| 20260903071317 | 77 | 196 | 0.0 | 0.0 | 0.00 | 0.00 | 0.00 | 81 | 1019.9 |
| 20260903071218 | 77 | 196 | 0.0 | 0.0 | 0.00 | 0.00 | 0.00 | 81 | 1019.9 |
| 20260903071117 | 77 | 196 | 0.0 | 0.0 | 0.00 | 0.00 | 0.00 | 81 | 1019.9 |
| 20260903071017 | 77 | 196 | 0.0 | 0.0 | 0.00 | 0.00 | 0.00 | 81 | 1019.9 |
| 20260903070917 | 77 | 196 | 0.0 | 0.0 | 0.00 | 0.00 | 0.00 | 81 | 1019.9 |
| 20260903070817 | 77 | 196 | 0.0 | 0.0 | 0.00 | 0.00 | 0.00 | 81 | 1019.9 |
| 20260903070718 | 77 | 196 | 0.0 | 0.0 | 0.00 | 0.00 | 0.00 | 81 | 1020.0 |
| 20260903070618 | 77 | 196 | 0.0 | 0.0 | 0.00 | 0.00 | 0.00 | 81 | 1020.0 |
| 20260903070516 | 77 | 196 | 0.0 | 0.0 | 0.00 | 0.00 | 0.00 | 81 | 1019.9 |
| 20260903070417 | 77 | 196 | 0.0 | 0.0 | 0.00 | 0.00 | 0.00 | 81 | 1020.0 |
| 20260903070317 | 77 | 196 | 0.0 | 0.0 | 0.00 | 0.00 | 0.00 | 81 | 1019.9 |
| 20260903070218 | 77 | 196 | 0.0 | 0.0 | 0.00 | 0.00 | 0.00 | 81 | 1020.0 |
| 20260903070117 | 77 | 196 | 0.0 | 0.0 | 0.00 | 0.00 | 0.00 | 81 | 1020.0 |
| 20260903070018 | 77 | 196 | 0.0 | 0.0 | 0.00 | 0.00 | 0.00 | 81 | 1020.0 |
| 20260903065917 | 77 | 196 | 0.0 | 0.0 | 0.00 | 0.00 | 0.00 | 81 | 1019.9 |
| 20260903065816 | 77 | 196 | 0.0 | 0.0 | 0.00 | 0.00 | 0.00 | 81 | 1020.0 |
| 20260903065718 | 77 | 196 | 0.0 | 0.0 | 0.00 | 0.00 | 0.00 | 81 | 1020.0 |
| 20260903065616 | 77 | 196 | 0.0 | 0.0 | 0.00 | 0.00 | 0.00 | 81 | 1020.0 |
| 20260903065518 | 77 | 196 | 0.0 | 0.0 | 0.00 | 0.00 | 0.00 | 81 | 1020.0 |
| 20260903065416 | 77 | 196 | 0.0 | 0.0 | 0.00 | 0.00 | 0.00 | 81 | 1019.9 |
| 20260903065317 | 77 | 196 | 0.0 | 0.0 | 0.00 | 0.00 | 0.00 | 81 | 1019.9 |
| 20260903065217 | 77 | 196 | 0.0 | 0.0 | 0.00 | 0.00 | 0.00 | 81 | 1020.0 |
| 20260903065117 | 77 | 196 | 0.0 | 0.0 | 0.00 | 0.00 | 0.00 | 81 | 1020.0 |
| 20260903065016 | 77 | 196 | 0.0 | 0.0 | 0.00 | 0.00 | 0.00 | 81 | 1020.0 |
| 20260903064918 | 77 | 196 | 0.0 | 0.0 | 0.00 | 0.00 | 0.00 | 81 | 1020.0 |
| 20260903064816 | 77 | 196 | 0.0 | 0.0 | 0.00 | 0.00 | 0.00 | 81 | 1020.0 |
| 20260903064717 | 77 | 196 | 0.0 | 0.0 | 0.00 | 0.00 | 0.00 | 82 | 1020.0 |
| 20260903064616 | 77 | 196 | 0.0 | 0.0 | 0.00 | 0.00 | 0.00 | 82 | 1020.0 |
| 20260903064517 | 77 | 196 | 0.0 | 0.0 | 0.00 | 0.00 | 0.00 | 82 | 1020.0 |
| 20260903064418 | 77 | 196 | 0.0 | 0.0 | 0.00 | 0.00 | 0.00 | 82 | 1020.0 |
| 20260903064312 | 77 | 196 | 0.0 | 0.0 | 0.00 | 0.00 | 0.00 | 82 | 1020.0 |
| 20260903064213 | 77 | 196 | 0.0 | 0.0 | 0.00 | 0.00 | 0.00 | 82 | 1020.2 |
| 20260903064112 | 77 | 196 | 0.0 | 0.0 | 0.00 | 0.00 | 0.00 | 82 | 1020.0 |
| 20260903064012 | 78 | 196 | 0.0 | 0.0 | 0.00 | 0.00 | 0.00 | 82 | 1020.0 |
| 20260903063913 | 77 | 196 | 0.0 | 0.0 | 0.00 | 0.00 | 0.00 | 82 | 1020.0 |
| 20260903063812 | 78 | 196 | 0.0 | 0.0 | 0.00 | 0.00 | 0.00 | 82 | 1020.0 |
| 20260903063714 | 77 | 196 | 0.0 | 0.0 | 0.00 | 0.00 | 0.00 | 82 | 1020.0 |
| 20260903063613 | 78 | 196 | 0.0 | 0.0 | 0.00 | 0.00 | 0.00 | 82 | 1020.0 |
| 20260903063513 | 78 | 196 | 0.0 | 0.0 | 0.00 | 0.00 | 0.00 | 82 | 1020.0 |
| 20260903063413 | 78 | 196 | 0.0 | 0.0 | 0.00 | 0.00 | 0.00 | 82 | 1020.0 |
| 20260903063312 | 78 | 196 | 0.0 | 0.0 | 0.00 | 0.00 | 0.00 | 82 | 1020.0 |
| 20260903063213 | 78 | 196 | 0.0 | 0.0 | 0.00 | 0.00 | 0.00 | 82 | 1020.0 |
| 20260903063113 | 78 | 196 | 0.0 | 0.0 | 0.00 | 0.00 | 0.00 | 82 | 1019.9 |
| 20260903063013 | 78 | 196 | 0.0 | 0.0 | 0.00 | 0.00 | 0.00 | 82 | 1020.0 |
| 20260903062914 | 78 | 196 | 0.0 | 0.0 | 0.00 | 0.00 | 0.00 | 82 | 1019.9 |
| 20260903062814 | 78 | 196 | 0.0 | 0.0 | 0.00 | 0.00 | 0.00 | 82 | 1020.0 |
| 20260903062712 | 78 | 196 | 0.0 | 0.0 | 0.00 | 0.00 | 0.00 | 82 | 1019.9 |
| 20260903062614 | 78 | 196 | 0.0 | 0.0 | 0.00 | 0.00 | 0.00 | 82 | 1019.9 |
| 20260903062512 | 78 | 196 | 0.0 | 0.0 | 0.00 | 0.00 | 0.00 | 82 | 1020.0 |
| 20260903062413 | 78 | 196 | 0.0 | 0.0 | 0.00 | 0.00 | 0.00 | 82 | 1019.9 |
| 20260903062314 | 78 | 196 | 0.0 | 0.0 | 0.00 | 0.00 | 0.00 | 82 | 1019.9 |
| 20260903062212 | 78 | 196 | 0.0 | 0.0 | 0.00 | 0.00 | 0.00 | 82 | 1019.9 |
| 20260903062113 | 78 | 196 | 0.0 | 0.0 | 0.00 | 0.00 | 0.00 | 82 | 1019.9 |
| 20260903062013 | 78 | 196 | 0.0 | 0.0 | 0.00 | 0.00 | 0.00 | 82 | 1020.0 |
| 20260903061912 | 78 | 196 | 0.0 | 0.0 | 0.00 | 0.00 | 0.00 | 82 | 1020.0 |
| 20260903061814 | 78 | 196 | 0.0 | 0.0 | 0.00 | 0.00 | 0.00 | 82 | 1020.0 |
| 20260903061712 | 78 | 196 | 0.0 | 0.0 | 0.00 | 0.00 | 0.00 | 82 | 1020.0 |
| 20260903061614 | 78 | 196 | 0.0 | 0.0 | 0.00 | 0.00 | 0.00 | 82 | 1020.2 |
| 20260903061512 | 78 | 196 | 0.0 | 0.0 | 0.00 | 0.00 | 0.00 | 82 | 1020.0 |
| 20260903061413 | 78 | 196 | 0.0 | 0.0 | 0.00 | 0.00 | 0.00 | 82 | 1020.0 |
| 20260903061312 | 78 | 196 | 0.0 | 0.0 | 0.00 | 0.00 | 0.00 | 82 | 1019.9 |
| 20260903061213 | 78 | 196 | 0.0 | 0.0 | 0.00 | 0.00 | 0.00 | 82 | 1020.0 |
| 20260903061114 | 78 | 196 | 0.0 | 0.0 | 0.00 | 0.00 | 0.00 | 82 | 1019.9 |
| 20260903061008 | 78 | 196 | 0.0 | 0.0 | 0.00 | 0.00 | 0.00 | 82 | 1019.9 |
| 20260903060909 | 78 | 196 | 0.0 | 0.0 | 0.00 | 0.00 | 0.00 | 81 | 1020.0 |
| 20260903060809 | 78 | 196 | 0.0 | 0.0 | 0.00 | 0.00 | 0.00 | 81 | 1019.9 |
| 20260903060708 | 78 | 196 | 0.0 | 0.0 | 0.00 | 0.00 | 0.00 | 81 | 1019.9 |
| 20260903060608 | 78 | 196 | 0.0 | 0.0 | 0.00 | 0.00 | 0.00 | 81 | 1019.8 |
| 20260903060508 | 78 | 196 | 0.0 | 0.0 | 0.00 | 0.00 | 0.00 | 81 | 1019.9 |
| 20260903060409 | 78 | 198 | 0.0 | 0.0 | 0.00 | 0.00 | 0.00 | 81 | 1019.9 |
| 20260903060309 | 78 | 198 | 0.0 | 0.0 | 0.00 | 0.00 | 0.00 | 81 | 1019.9 |
| 20260903060208 | 78 | 198 | 0.0 | 0.0 | 0.00 | 0.00 | 0.00 | 81 | 1019.9 |
| 20260903060110 | 78 | 198 | 0.0 | 0.0 | 0.00 | 0.00 | 0.00 | 81 | 1019.9 |
| 20260903060010 | 78 | 198 | 0.0 | 0.0 | 0.00 | 0.00 | 0.00 | 81 | 1019.9 |
| 20260903055908 | 78 | 198 | 0.0 | 0.0 | 0.00 | 0.00 | 0.00 | 81 | 1019.9 |
| 20260903055808 | 78 | 198 | 0.0 | 0.0 | 0.00 | 0.00 | 0.00 | 80 | 1019.9 |
| 20260903055710 | 78 | 198 | 0.0 | 0.0 | 0.00 | 0.00 | 0.00 | 80 | 1019.9 |
| 20260903055609 | 78 | 198 | 0.0 | 0.0 | 0.00 | 0.00 | 0.00 | 80 | 1019.9 |
| 20260903055508 | 78 | 198 | 0.0 | 0.0 | 0.00 | 0.00 | 0.00 | 80 | 1019.9 |
| 20260903055408 | 78 | 198 | 0.0 | 0.0 | 0.00 | 0.00 | 0.00 | 80 | 1019.9 |
| 20260903055309 | 78 | 198 | 0.0 | 0.0 | 0.00 | 0.00 | 0.00 | 80 | 1019.9 |
| 20260903055208 | 78 | 198 | 0.0 | 0.0 | 0.00 | 0.00 | 0.00 | 80 | 1019.9 |
| 20260903055105 | 78 | 198 | 0.0 | 0.0 | 0.00 | 0.00 | 0.00 | 79 | 1019.9 |
| 20260903055005 | 78 | 198 | 0.0 | 0.0 | 0.00 | 0.00 | 0.00 | 79 | 1019.9 |
| 20260903054902 | 78 | 198 | 0.0 | 0.0 | 0.00 | 0.00 | 0.00 | 79 | 1019.9 |
| 20260903054803 | 78 | 198 | 0.0 | 0.0 | 0.00 | 0.00 | 0.00 | 79 | 1019.9 |
| 20260903054703 | 78 | 198 | 0.0 | 0.0 | 0.00 | 0.00 | 0.00 | 79 | 1019.9 |
| 20260903054557 | 78 | 198 | 0.0 | 0.0 | 0.00 | 0.00 | 0.00 | 79 | 1019.9 |
| 20260903054454 | 78 | 198 | 0.0 | 0.0 | 0.00 | 0.00 | 0.00 | 79 | 1019.8 |
| 20260903054354 | 78 | 198 | 0.0 | 0.0 | 0.00 | 0.00 | 0.00 | 79 | 1019.9 |
| 20260903054253 | 78 | 198 | 0.0 | 0.0 | 0.00 | 0.00 | 0.00 | 78 | 1019.8 |
| 20260903054152 | 78 | 198 | 0.0 | 0.0 | 0.00 | 0.00 | 0.00 | 78 | 1019.8 |
| 20260903054054 | 78 | 198 | 0.0 | 0.0 | 0.00 | 0.00 | 0.00 | 78 | 1019.8 |
| 20260903053950 | 78 | 198 | 0.0 | 0.0 | 0.00 | 0.00 | 0.00 | 78 | 1019.8 |
| 20260903053852 | 78 | 198 | 0.0 | 0.0 | 0.00 | 0.00 | 0.00 | 78 | 1019.8 |
| 20260903053749 | 78 | 198 | 0.0 | 0.0 | 0.00 | 0.00 | 0.00 | 78 | 1019.9 |
| 20260903053647 | 78 | 198 | 0.0 | 0.0 | 0.00 | 0.00 | 0.00 | 78 | 1019.9 |
| 20260903053541 | 78 | 198 | 0.0 | 0.0 | 0.00 | 0.00 | 0.00 | 78 | 1019.9 |
| 20260903053440 | 78 | 198 | 0.0 | 0.0 | 0.00 | 0.00 | 0.00 | 78 | 1020.0 |
| 20260903053341 | 78 | 198 | 0.0 | 0.0 | 0.00 | 0.00 | 0.00 | 78 | 1020.0 |
| 20260903053242 | 78 | 198 | 0.0 | 0.0 | 0.00 | 0.00 | 0.00 | 78 | 1020.0 |
| 20260903053141 | 78 | 198 | 0.0 | 0.0 | 0.00 | 0.00 | 0.00 | 78 | 1019.9 |
| 20260903053036 | 78 | 198 | 0.0 | 0.0 | 0.00 | 0.00 | 0.00 | 78 | 1020.0 |
| 20260903052935 | 78 | 198 | 0.0 | 0.0 | 0.00 | 0.00 | 0.00 | 78 | 1020.0 |
| 20260903052835 | 78 | 198 | 0.0 | 0.0 | 0.00 | 0.00 | 0.00 | 78 | 1020.0 |
| 20260903052734 | 78 | 198 | 0.0 | 0.0 | 0.00 | 0.00 | 0.00 | 78 | 1020.2 |
| 20260903052631 | 78 | 198 | 0.0 | 0.0 | 0.00 | 0.00 | 0.00 | 78 | 1020.0 |
| 20260903052529 | 78 | 198 | 0.0 | 0.0 | 0.00 | 0.00 | 0.00 | 78 | 1020.0 |
| 20260903052428 | 78 | 198 | 0.0 | 0.0 | 0.00 | 0.00 | 0.00 | 78 | 1020.0 |
| 20260903052329 | 78 | 198 | 0.0 | 0.0 | 0.00 | 0.00 | 0.00 | 78 | 1020.0 |
| 20260903052228 | 78 | 198 | 0.0 | 0.0 | 0.00 | 0.00 | 0.00 | 78 | 1020.2 |
| 20260903052125 | 78 | 198 | 0.0 | 0.0 | 0.00 | 0.00 | 0.00 | 78 | 1020.2 |
| 20260903052025 | 78 | 198 | 0.0 | 0.0 | 0.00 | 0.00 | 0.00 | 78 | 1020.0 |
| 20260903051924 | 78 | 198 | 0.0 | 0.0 | 0.00 | 0.00 | 0.00 | 78 | 1020.0 |
| 20260903051823 | 78 | 198 | 0.0 | 0.0 | 0.00 | 0.00 | 0.00 | 78 | 1020.2 |
| 20260903051722 | 78 | 198 | 0.0 | 0.0 | 0.00 | 0.00 | 0.00 | 78 | 1020.3 |
| 20260903051619 | 78 | 198 | 0.0 | 0.0 | 0.00 | 0.00 | 0.00 | 79 | 1020.0 |
| 20260903051516 | 78 | 198 | 0.0 | 0.0 | 0.00 | 0.00 | 0.00 | 79 | 1020.0 |
| 20260903051413 | 78 | 198 | 0.0 | 0.0 | 0.00 | 0.00 | 0.00 | 79 | 1020.3 |
| 20260903051313 | 78 | 198 | 0.0 | 0.0 | 0.00 | 0.00 | 0.00 | 79 | 1020.2 |
| 20260903051212 | 78 | 198 | 0.0 | 0.0 | 0.00 | 0.00 | 0.00 | 79 | 1020.2 |
| 20260903051112 | 78 | 198 | 0.0 | 0.0 | 0.00 | 0.00 | 0.00 | 79 | 1020.2 |
| 20260903051012 | 78 | 198 | 0.0 | 0.0 | 0.00 | 0.00 | 0.00 | 79 | 1020.3 |
| 20260903050912 | 78 | 198 | 0.0 | 0.0 | 0.00 | 0.00 | 0.00 | 79 | 1020.3 |
| 20260903050811 | 78 | 198 | 0.0 | 0.0 | 0.00 | 0.00 | 0.00 | 79 | 1020.4 |
| 20260903050709 | 78 | 198 | 0.0 | 0.0 | 0.00 | 0.00 | 0.00 | 79 | 1020.3 |
| 20260903050609 | 78 | 198 | 0.0 | 0.0 | 0.00 | 0.00 | 0.00 | 79 | 1020.3 |
| 20260903050506 | 78 | 198 | 0.0 | 0.0 | 0.00 | 0.00 | 0.00 | 79 | 1020.3 |
| 20260903050406 | 78 | 198 | 0.0 | 0.0 | 0.00 | 0.00 | 0.00 | 79 | 1020.3 |
| 20260903050304 | 78 | 198 | 0.0 | 0.0 | 0.00 | 0.00 | 0.00 | 79 | 1020.3 |
| 20260903050205 | 78 | 198 | 0.0 | 0.0 | 0.00 | 0.00 | 0.00 | 79 | 1020.3 |
| 20260903050104 | 78 | 198 | 0.0 | 0.0 | 0.00 | 0.00 | 0.00 | 79 | 1020.4 |
| 20260903050006 | 78 | 198 | 0.0 | 0.0 | 0.00 | 0.00 | 0.00 | 79 | 1020.4 |
| 20260903045902 | 78 | 198 | 0.0 | 0.0 | 0.00 | 0.00 | 0.00 | 79 | 1020.4 |
| 20260903045803 | 78 | 198 | 0.0 | 0.0 | 0.00 | 0.00 | 0.00 | 79 | 1020.5 |
| 20260903045701 | 78 | 198 | 0.0 | 0.0 | 0.00 | 0.00 | 0.00 | 79 | 1020.4 |
| 20260903045600 | 78 | 198 | 0.0 | 0.0 | 0.00 | 0.00 | 0.00 | 79 | 1020.5 |
| 20260903045501 | 78 | 198 | 0.0 | 0.0 | 0.00 | 0.00 | 0.00 | 79 | 1020.5 |
| 20260903045400 | 79 | 198 | 0.0 | 0.0 | 0.00 | 0.00 | 0.00 | 79 | 1020.5 |
| 20260903045258 | 79 | 198 | 0.0 | 0.0 | 0.00 | 0.00 | 0.00 | 78 | 1020.4 |
| 20260903045158 | 79 | 198 | 0.0 | 0.0 | 0.00 | 0.00 | 0.00 | 78 | 1020.4 |
| 20260903045100 | 79 | 198 | 0.0 | 0.0 | 0.00 | 0.00 | 0.00 | 78 | 1020.5 |
| 20260903044957 | 79 | 198 | 0.0 | 0.0 | 0.00 | 0.00 | 0.00 | 78 | 1020.4 |
| 20260903044854 | 79 | 198 | 0.0 | 0.0 | 0.00 | 0.00 | 0.00 | 78 | 1020.4 |
| 20260903044755 | 79 | 198 | 0.0 | 0.0 | 0.00 | 0.00 | 0.00 | 78 | 1020.4 |
| 20260903044652 | 79 | 198 | 0.0 | 0.0 | 0.00 | 0.00 | 0.00 | 78 | 1020.3 |
| 20260903044553 | 79 | 198 | 0.0 | 0.0 | 0.00 | 0.00 | 0.00 | 78 | 1020.4 |
| 20260903044452 | 79 | 198 | 0.0 | 0.0 | 0.00 | 0.00 | 0.00 | 78 | 1020.4 |
| 20260903044349 | 79 | 198 | 0.0 | 0.0 | 0.00 | 0.00 | 0.00 | 78 | 1020.4 |
| 20260903044245 | 79 | 198 | 0.0 | 0.0 | 0.00 | 0.00 | 0.00 | 78 | 1020.4 |
| 20260903044142 | 79 | 198 | 0.0 | 0.0 | 0.00 | 0.00 | 0.00 | 78 | 1020.4 |
| 20260903044043 | 79 | 198 | 0.0 | 0.0 | 0.00 | 0.00 | 0.00 | 78 | 1020.4 |
| 20260903043941 | 79 | 198 | 0.0 | 0.0 | 0.00 | 0.00 | 0.00 | 78 | 1020.4 |
| 20260903043839 | 79 | 198 | 0.0 | 0.0 | 0.00 | 0.00 | 0.00 | 78 | 1020.4 |
| 20260903043739 | 79 | 198 | 0.0 | 0.0 | 0.00 | 0.00 | 0.00 | 78 | 1020.4 |
| 20260903043636 | 79 | 198 | 0.0 | 0.0 | 0.00 | 0.00 | 0.00 | 78 | 1020.4 |
| 20260903043537 | 79 | 198 | 0.0 | 0.0 | 0.00 | 0.00 | 0.00 | 78 | 1020.4 |
| 20260903043436 | 79 | 198 | 0.0 | 0.0 | 0.00 | 0.00 | 0.00 | 78 | 1020.5 |
| 20260903043333 | 79 | 198 | 0.0 | 0.0 | 0.00 | 0.00 | 0.00 | 78 | 1020.5 |
| 20260903043232 | 79 | 198 | 0.0 | 0.0 | 0.00 | 0.00 | 0.00 | 78 | 1020.5 |
| 20260903043131 | 79 | 198 | 0.0 | 0.0 | 0.00 | 0.00 | 0.00 | 78 | 1020.6 |
| 20260903043031 | 79 | 198 | 0.0 | 0.0 | 0.00 | 0.00 | 0.00 | 78 | 1020.5 |
| 20260903042929 | 79 | 198 | 0.0 | 0.0 | 0.00 | 0.00 | 0.00 | 78 | 1020.5 |
| 20260903042827 | 79 | 198 | 0.0 | 0.0 | 0.00 | 0.00 | 0.00 | 78 | 1020.5 |
| 20260903042720 | 79 | 198 | 0.0 | 0.0 | 0.00 | 0.00 | 0.00 | 78 | 1020.5 |
| 20260903042621 | 79 | 198 | 0.0 | 0.0 | 0.00 | 0.00 | 0.00 | 78 | 1020.5 |
| 20260903042521 | 79 | 198 | 0.0 | 0.0 | 0.00 | 0.00 | 0.00 | 78 | 1020.5 |
| 20260903042419 | 79 | 198 | 0.0 | 0.0 | 0.00 | 0.00 | 0.00 | 78 | 1020.5 |
| 20260903042316 | 79 | 198 | 0.0 | 0.0 | 0.00 | 0.00 | 0.00 | 78 | 1020.5 |
| 20260903042218 | 79 | 198 | 0.0 | 0.0 | 0.00 | 0.00 | 0.00 | 78 | 1020.5 |
| 20260903042114 | 79 | 198 | 0.0 | 0.0 | 0.00 | 0.00 | 0.00 | 78 | 1020.5 |
| 20260903042015 | 79 | 198 | 0.0 | 0.0 | 0.00 | 0.00 | 0.00 | 78 | 1020.5 |
| 20260903041914 | 80 | 198 | 0.0 | 0.0 | 0.00 | 0.00 | 0.00 | 78 | 1020.5 |
| 20260903041811 | 80 | 198 | 0.0 | 0.0 | 0.00 | 0.00 | 0.00 | 78 | 1020.5 |
| 20260903041705 | 80 | 198 | 0.0 | 0.0 | 0.00 | 0.00 | 0.00 | 78 | 1020.5 |
| 20260903041604 | 80 | 198 | 0.0 | 0.0 | 0.00 | 0.00 | 0.00 | 78 | 1020.6 |
| 20260903041506 | 80 | 198 | 0.0 | 0.0 | 0.00 | 0.00 | 0.00 | 78 | 1020.5 |
| 20260903041406 | 80 | 197 | 0.0 | 0.0 | 0.00 | 0.00 | 0.00 | 77 | 1020.5 |
| 20260903041304 | 80 | 197 | 0.0 | 0.0 | 0.00 | 0.00 | 0.00 | 77 | 1020.6 |
| 20260903041201 | 80 | 197 | 0.0 | 0.0 | 0.00 | 0.00 | 0.00 | 77 | 1020.6 |
| 20260903041101 | 80 | 196 | 0.0 | 0.0 | 0.00 | 0.00 | 0.00 | 77 | 1020.6 |
| 20260903041000 | 80 | 196 | 0.0 | 0.0 | 0.00 | 0.00 | 0.00 | 77 | 1020.6 |
| 20260903040900 | 80 | 196 | 0.0 | 0.0 | 0.00 | 0.00 | 0.00 | 77 | 1020.6 |
| 20260903040802 | 80 | 196 | 0.0 | 0.0 | 0.00 | 0.00 | 0.00 | 77 | 1020.7 |
| 20260903040701 | 80 | 196 | 0.0 | 0.0 | 0.00 | 0.00 | 0.00 | 77 | 1020.6 |
| 20260903040602 | 80 | 196 | 0.0 | 0.0 | 0.00 | 0.00 | 0.00 | 77 | 1020.6 |
| 20260903040500 | 80 | 196 | 0.0 | 0.0 | 0.00 | 0.00 | 0.00 | 77 | 1020.6 |
| 20260903040401 | 80 | 196 | 0.0 | 0.0 | 0.00 | 0.00 | 0.00 | 77 | 1020.6 |
| 20260903040301 | 80 | 196 | 0.0 | 0.0 | 0.00 | 0.00 | 0.00 | 77 | 1020.6 |
| 20260903040200 | 80 | 195 | 0.0 | 0.0 | 0.00 | 0.00 | 0.00 | 77 | 1020.6 |
| 20260903040058 | 80 | 195 | 0.0 | 0.0 | 0.00 | 0.00 | 0.00 | 77 | 1020.6 |
| 20260903040000 | 80 | 194 | 0.0 | 0.0 | 0.00 | 0.00 | 0.00 | 77 | 1020.6 |
| 20260903035858 | 80 | 194 | 0.0 | 0.0 | 0.00 | 0.00 | 0.00 | 77 | 1020.5 |
| 20260903035759 | 80 | 194 | 0.0 | 0.0 | 0.00 | 0.00 | 0.00 | 77 | 1020.5 |
| 20260903035658 | 80 | 193 | 0.0 | 0.0 | 0.00 | 0.00 | 0.00 | 77 | 1020.6 |
| 20260903035559 | 80 | 192 | 0.0 | 0.0 | 0.00 | 0.00 | 0.00 | 77 | 1020.6 |
| 20260903035459 | 80 | 191 | 0.0 | 0.0 | 0.00 | 0.00 | 0.00 | 77 | 1020.6 |
| 20260903035358 | 80 | 191 | 0.0 | 0.0 | 0.00 | 0.00 | 0.00 | 77 | 1020.6 |
| 20260903035258 | 80 | 191 | 0.0 | 0.0 | 0.00 | 0.00 | 0.00 | 76 | 1020.5 |
| 20260903035200 | 80 | 191 | 0.0 | 0.0 | 0.00 | 0.00 | 0.00 | 77 | 1020.6 |
| 20260903035058 | 80 | 191 | 0.0 | 0.0 | 0.00 | 0.00 | 0.00 | 77 | 1020.6 |
| 20260903035000 | 80 | 191 | 0.0 | 0.0 | 0.00 | 0.00 | 0.00 | 77 | 1020.6 |
| 20260903034858 | 80 | 190 | 0.0 | 0.0 | 0.00 | 0.00 | 0.00 | 77 | 1020.6 |
| 20260903034800 | 80 | 190 | 0.0 | 0.0 | 0.00 | 0.00 | 0.00 | 76 | 1020.7 |
| 20260903034658 | 80 | 190 | 0.0 | 0.0 | 0.00 | 0.00 | 0.00 | 76 | 1020.6 |
| 20260903034559 | 80 | 189 | 0.0 | 0.0 | 0.00 | 0.00 | 0.00 | 76 | 1020.8 |
| 20260903034458 | 80 | 189 | 0.0 | 0.0 | 0.00 | 0.00 | 0.00 | 76 | 1020.8 |
| 20260903034358 | 80 | 189 | 0.0 | 0.0 | 0.00 | 0.00 | 0.00 | 76 | 1020.7 |
| 20260903034300 | 80 | 188 | 0.0 | 0.0 | 0.00 | 0.00 | 0.00 | 76 | 1020.7 |
| 20260903034200 | 80 | 188 | 0.0 | 0.0 | 0.00 | 0.00 | 0.00 | 76 | 1020.7 |
| 20260903034059 | 80 | 188 | 0.0 | 0.0 | 0.00 | 0.00 | 0.00 | 76 | 1020.8 |
| 20260903033958 | 80 | 188 | 0.0 | 0.0 | 0.00 | 0.00 | 0.00 | 76 | 1020.8 |
| 20260903033900 | 80 | 188 | 0.0 | 0.0 | 0.00 | 0.00 | 0.00 | 76 | 1020.8 |
| 20260903033800 | 80 | 186 | 0.0 | 0.0 | 0.00 | 0.00 | 0.00 | 76 | 1020.8 |
| 20260903033659 | 80 | 186 | 0.0 | 0.0 | 0.00 | 0.00 | 0.00 | 76 | 1020.8 |
| 20260903033558 | 81 | 186 | 0.0 | 0.0 | 0.00 | 0.00 | 0.00 | 75 | 1020.8 |
| 20260903033500 | 81 | 186 | 0.0 | 0.0 | 0.00 | 0.00 | 0.00 | 75 | 1020.8 |
| 20260903033354 | 81 | 187 | 0.0 | 0.0 | 0.00 | 0.00 | 0.00 | 75 | 1020.8 |
| 20260903033255 | 81 | 187 | 0.0 | 0.0 | 0.00 | 0.00 | 0.00 | 75 | 1020.8 |
| 20260903033155 | 81 | 184 | 0.0 | 0.0 | 0.00 | 0.00 | 0.00 | 75 | 1020.9 |
| 20260903033055 | 81 | 184 | 0.0 | 0.0 | 0.00 | 0.00 | 0.00 | 75 | 1020.9 |
| 20260903032956 | 81 | 184 | 0.0 | 0.0 | 0.00 | 0.00 | 0.00 | 75 | 1020.8 |
| 20260903032854 | 81 | 185 | 0.0 | 0.0 | 0.00 | 0.00 | 0.00 | 75 | 1020.9 |
| 20260903032754 | 81 | 187 | 0.0 | 0.0 | 0.00 | 0.00 | 0.00 | 75 | 1020.9 |
| 20260903032656 | 81 | 186 | 0.0 | 0.0 | 0.00 | 0.00 | 0.00 | 75 | 1020.9 |
| 20260903032554 | 81 | 188 | 0.0 | 0.0 | 0.00 | 0.00 | 0.00 | 74 | 1020.9 |
| 20260903032455 | 81 | 188 | 0.0 | 0.0 | 0.00 | 0.00 | 0.00 | 74 | 1020.9 |
| 20260903032355 | 81 | 188 | 0.0 | 0.0 | 0.00 | 0.00 | 0.00 | 74 | 1021.0 |
| 20260903032256 | 81 | 188 | 0.0 | 0.0 | 0.00 | 0.00 | 0.00 | 74 | 1021.0 |
| 20260903032156 | 81 | 188 | 0.0 | 0.0 | 0.00 | 0.00 | 0.00 | 74 | 1021.0 |
| 20260903032055 | 81 | 188 | 0.0 | 0.0 | 0.00 | 0.00 | 0.00 | 74 | 1021.0 |
| 20260903031956 | 81 | 185 | 0.0 | 0.0 | 0.00 | 0.00 | 0.00 | 74 | 1021.1 |
| 20260903031854 | 81 | 185 | 0.0 | 0.0 | 0.00 | 0.00 | 0.00 | 74 | 1020.9 |
| 20260903031755 | 81 | 183 | 0.0 | 0.0 | 0.00 | 0.00 | 0.00 | 73 | 1021.1 |
| 20260903031655 | 81 | 184 | 0.0 | 0.0 | 0.00 | 0.00 | 0.00 | 73 | 1021.1 |
| 20260903031554 | 82 | 182 | 0.0 | 0.0 | 0.00 | 0.00 | 0.00 | 73 | 1021.0 |
| 20260903031455 | 82 | 186 | 0.0 | 0.0 | 0.00 | 0.00 | 0.00 | 73 | 1021.0 |
| 20260903031355 | 82 | 188 | 0.0 | 0.0 | 0.00 | 0.00 | 0.00 | 73 | 1021.0 |
| 20260903031252 | 82 | 188 | 0.0 | 0.0 | 0.00 | 0.00 | 0.00 | 73 | 1021.0 |
| 20260903031149 | 82 | 189 | 0.0 | 0.0 | 0.00 | 0.00 | 0.00 | 73 | 1021.0 |
| 20260903031046 | 82 | 189 | 0.0 | 0.0 | 0.00 | 0.00 | 0.00 | 73 | 1021.0 |
| 20260903030940 | 82 | 190 | 0.0 | 0.0 | 0.00 | 0.00 | 0.00 | 73 | 1021.1 |
| 20260903030841 | 82 | 190 | 0.0 | 0.0 | 0.00 | 0.00 | 0.00 | 73 | 1021.0 |
| 20260903030738 | 82 | 191 | 0.0 | 0.0 | 0.00 | 0.00 | 0.00 | 73 | 1021.1 |
| 20260903030639 | 82 | 192 | 0.0 | 0.0 | 0.00 | 0.00 | 0.00 | 73 | 1021.1 |
| 20260903030536 | 82 | 193 | 0.0 | 0.0 | 0.00 | 0.00 | 0.00 | 73 | 1021.1 |
| 20260903030437 | 82 | 194 | 0.0 | 0.0 | 0.00 | 0.00 | 0.00 | 73 | 1021.1 |
| 20260903030335 | 82 | 194 | 0.0 | 0.0 | 0.00 | 0.00 | 0.00 | 73 | 1021.1 |
| 20260903030235 | 82 | 194 | 0.0 | 0.0 | 0.00 | 0.00 | 0.00 | 72 | 1021.2 |
| 20260903030134 | 82 | 194 | 0.0 | 0.0 | 0.00 | 0.00 | 0.00 | 72 | 1021.1 |
| 20260903030030 | 82 | 195 | 0.0 | 0.0 | 0.00 | 0.00 | 0.00 | 73 | 1021.3 |
| 20260903025928 | 82 | 195 | 0.0 | 0.0 | 0.00 | 0.00 | 0.00 | 72 | 1021.2 |
| 20260903025830 | 82 | 195 | 0.0 | 0.0 | 0.00 | 0.00 | 0.00 | 72 | 1021.2 |
| 20260903025728 | 82 | 194 | 0.0 | 0.0 | 0.00 | 0.00 | 0.00 | 72 | 1021.2 |
| 20260903025628 | 82 | 194 | 0.0 | 0.0 | 0.00 | 0.00 | 0.00 | 72 | 1021.3 |
| 20260903025525 | 82 | 194 | 0.0 | 0.0 | 0.00 | 0.00 | 0.00 | 72 | 1021.2 |
| 20260903025419 | 82 | 194 | 0.0 | 0.0 | 0.00 | 0.00 | 0.00 | 72 | 1021.2 |
| 20260903025320 | 82 | 194 | 0.0 | 0.0 | 0.00 | 0.00 | 0.00 | 72 | 1021.2 |
| 20260903025218 | 82 | 194 | 0.0 | 0.0 | 0.00 | 0.00 | 0.00 | 72 | 1021.2 |
| 20260903025118 | 82 | 193 | 0.0 | 0.0 | 0.00 | 0.00 | 0.00 | 72 | 1021.3 |
| 20260903025014 | 82 | 193 | 0.0 | 0.0 | 0.00 | 0.00 | 0.00 | 72 | 1021.3 |
| 20260903024914 | 82 | 192 | 0.0 | 0.0 | 0.00 | 0.00 | 0.00 | 72 | 1021.2 |
| 20260903024813 | 82 | 192 | 0.0 | 0.0 | 0.00 | 0.00 | 0.00 | 72 | 1021.2 |
| 20260903024712 | 83 | 192 | 0.0 | 0.0 | 0.00 | 0.00 | 0.00 | 72 | 1021.3 |
| 20260903024612 | 83 | 192 | 0.0 | 0.0 | 0.00 | 0.00 | 0.00 | 72 | 1021.3 |
| 20260903024509 | 83 | 192 | 0.0 | 0.0 | 0.00 | 0.00 | 0.00 | 72 | 1021.3 |
| 20260903024403 | 83 | 191 | 0.0 | 0.0 | 0.00 | 0.00 | 0.00 | 72 | 1021.3 |
| 20260903024302 | 83 | 191 | 0.0 | 0.0 | 0.00 | 0.00 | 0.00 | 72 | 1021.3 |
| 20260903024204 | 83 | 190 | 0.0 | 0.0 | 0.00 | 0.00 | 0.00 | 72 | 1021.4 |
| 20260903024102 | 83 | 190 | 0.0 | 0.0 | 0.00 | 0.00 | 0.00 | 72 | 1021.4 |
| 20260903024002 | 83 | 190 | 0.0 | 0.0 | 0.00 | 0.00 | 0.00 | 71 | 1021.4 |
| 20260903023857 | 83 | 190 | 0.0 | 0.0 | 0.00 | 0.00 | 0.00 | 71 | 1021.4 |
| 20260903023757 | 83 | 190 | 0.0 | 0.0 | 0.00 | 0.00 | 0.00 | 71 | 1021.4 |
| 20260903023658 | 83 | 190 | 0.0 | 0.0 | 0.00 | 0.00 | 0.00 | 71 | 1021.3 |
| 20260903023555 | 83 | 189 | 0.0 | 0.0 | 0.00 | 0.00 | 0.00 | 71 | 1021.4 |
| 20260903023453 | 83 | 189 | 0.0 | 0.0 | 0.00 | 0.00 | 0.00 | 71 | 1021.4 |
| 20260903023352 | 83 | 189 | 0.0 | 0.0 | 0.00 | 0.00 | 0.00 | 71 | 1021.3 |
| 20260903023251 | 83 | 188 | 0.0 | 0.0 | 0.00 | 0.00 | 0.00 | 71 | 1021.4 |
| 20260903023150 | 83 | 188 | 0.0 | 0.0 | 0.00 | 0.00 | 0.00 | 71 | 1021.5 |
| 20260903023049 | 83 | 188 | 0.0 | 0.0 | 0.00 | 0.00 | 0.00 | 71 | 1021.4 |
| 20260903022947 | 83 | 188 | 0.0 | 0.0 | 0.00 | 0.00 | 0.00 | 71 | 1021.3 |
| 20260903022846 | 83 | 188 | 0.0 | 0.0 | 0.00 | 0.00 | 0.00 | 71 | 1021.4 |
| 20260903022745 | 83 | 189 | 0.0 | 0.0 | 0.00 | 0.00 | 0.00 | 71 | 1021.4 |
| 20260903022642 | 83 | 188 | 0.0 | 0.0 | 0.00 | 0.00 | 0.00 | 71 | 1021.4 |
| 20260903022544 | 83 | 188 | 0.0 | 0.0 | 0.00 | 0.00 | 0.00 | 71 | 1021.3 |
| 20260903022440 | 83 | 189 | 0.0 | 0.0 | 0.00 | 0.00 | 0.00 | 71 | 1021.4 |
| 20260903022334 | 83 | 188 | 0.0 | 0.0 | 0.00 | 0.00 | 0.00 | 71 | 1021.3 |
| 20260903022234 | 83 | 190 | 0.0 | 0.0 | 0.00 | 0.00 | 0.00 | 71 | 1021.3 |
| 20260903022135 | 83 | 190 | 0.0 | 0.0 | 0.00 | 0.00 | 0.00 | 71 | 1021.3 |
| 20260903022032 | 83 | 191 | 0.0 | 0.0 | 0.00 | 0.00 | 0.00 | 71 | 1021.3 |
| 20260903021931 | 83 | 192 | 0.0 | 0.0 | 0.00 | 0.00 | 0.00 | 71 | 1021.3 |
| 20260903021824 | 83 | 196 | 0.0 | 0.0 | 0.00 | 0.00 | 0.00 | 71 | 1021.4 |
| 20260903021724 | 83 | 197 | 0.0 | 0.0 | 0.00 | 0.00 | 0.00 | 71 | 1021.4 |
| 20260903021626 | 83 | 196 | 0.0 | 0.0 | 0.00 | 0.00 | 0.00 | 71 | 1021.4 |
| 20260903021524 | 83 | 198 | 0.0 | 0.0 | 0.00 | 0.00 | 0.00 | 71 | 1021.4 |
| 20260903021425 | 83 | 200 | 0.0 | 0.0 | 0.00 | 0.00 | 0.00 | 71 | 1021.5 |
| 20260903021318 | 83 | 200 | 0.0 | 0.0 | 0.00 | 0.00 | 0.00 | 71 | 1021.5 |
| 20260903021219 | 83 | 200 | 0.0 | 0.0 | 0.00 | 0.00 | 0.00 | 71 | 1021.5 |
| 20260903021119 | 83 | 202 | 0.0 | 0.0 | 0.00 | 0.00 | 0.00 | 71 | 1021.5 |
| 20260903021019 | 83 | 202 | 0.0 | 0.0 | 0.00 | 0.00 | 0.00 | 71 | 1021.5 |
| 20260903020918 | 83 | 206 | 0.0 | 0.0 | 0.00 | 0.00 | 0.00 | 71 | 1021.5 |
| 20260903020812 | 83 | 209 | 0.0 | 0.0 | 0.00 | 0.00 | 0.00 | 71 | 1021.5 |
| 20260903020709 | 83 | 211 | 0.0 | 0.0 | 0.00 | 0.00 | 0.00 | 71 | 1021.5 |
| 20260903020609 | 82 | 212 | 0.0 | 0.0 | 0.00 | 0.00 | 0.00 | 71 | 1021.5 |
| 20260903020509 | 82 | 217 | 0.0 | 0.0 | 0.00 | 0.00 | 0.00 | 72 | 1021.4 |
| 20260903020408 | 82 | 217 | 0.0 | 0.0 | 0.00 | 0.00 | 0.00 | 71 | 1021.5 |
| 20260903020304 | 82 | 218 | 0.0 | 0.0 | 0.00 | 0.00 | 0.00 | 72 | 1021.6 |
| 20260903020202 | 82 | 219 | 0.0 | 0.0 | 0.00 | 0.00 | 0.00 | 72 | 1021.6 |
| 20260903020003 | 82 | 219 | 0.0 | 0.0 | 0.00 | 0.00 | 0.00 | 72 | 1021.5 |
| 20260903015903 | 82 | 219 | 0.0 | 0.0 | 0.00 | 0.00 | 0.00 | 72 | 1021.5 |
| 20260903015802 | 82 | 220 | 0.0 | 0.0 | 0.00 | 0.00 | 0.00 | 72 | 1021.4 |
| 20260903015700 | 82 | 220 | 0.0 | 0.0 | 0.00 | 0.00 | 0.00 | 72 | 1021.5 |
| 20260903015600 | 82 | 219 | 0.0 | 0.0 | 0.00 | 0.00 | 0.00 | 72 | 1021.5 |
| 20260903015459 | 82 | 220 | 0.0 | 0.0 | 0.00 | 0.00 | 0.00 | 72 | 1021.5 |
| 20260903015356 | 82 | 220 | 0.0 | 0.0 | 0.00 | 0.00 | 0.00 | 72 | 1021.4 |
| 20260903015251 | 82 | 220 | 0.0 | 0.0 | 0.00 | 0.00 | 0.00 | 72 | 1021.5 |
| 20260903015150 | 82 | 221 | 0.0 | 0.0 | 0.00 | 0.00 | 0.00 | 72 | 1021.5 |
| 20260903015051 | 82 | 221 | 0.0 | 0.0 | 0.00 | 0.00 | 0.00 | 72 | 1021.4 |
| 20260903014949 | 82 | 220 | 0.0 | 0.0 | 0.00 | 0.00 | 0.00 | 72 | 1021.5 |
| 20260903014847 | 82 | 220 | 0.0 | 0.0 | 0.00 | 0.00 | 0.00 | 73 | 1021.5 |
| 20260903014746 | 82 | 221 | 0.0 | 0.0 | 0.00 | 0.00 | 0.00 | 73 | 1021.4 |
| 20260903014645 | 82 | 220 | 0.0 | 0.0 | 0.00 | 0.00 | 0.00 | 73 | 1021.5 |
| 20260903014545 | 82 | 221 | 0.0 | 0.0 | 0.00 | 0.00 | 0.00 | 73 | 1021.4 |
| 20260903014443 | 82 | 221 | 0.0 | 0.0 | 0.00 | 0.00 | 0.00 | 73 | 1021.4 |
| 20260903014341 | 82 | 221 | 0.0 | 0.0 | 0.00 | 0.00 | 0.00 | 73 | 1021.4 |
| 20260903014236 | 82 | 221 | 0.0 | 0.0 | 0.00 | 0.00 | 0.00 | 73 | 1021.4 |
| 20260903014134 | 82 | 221 | 0.0 | 0.0 | 0.00 | 0.00 | 0.00 | 73 | 1021.5 |
| 20260903014035 | 82 | 221 | 0.0 | 0.0 | 0.00 | 0.00 | 0.00 | 73 | 1021.4 |
| 20260903013934 | 82 | 222 | 0.0 | 0.0 | 0.00 | 0.00 | 0.00 | 73 | 1021.3 |
| 20260903013835 | 82 | 222 | 0.0 | 0.0 | 0.00 | 0.00 | 0.00 | 73 | 1021.3 |
| 20260903013730 | 82 | 222 | 0.0 | 0.0 | 0.00 | 0.00 | 0.00 | 73 | 1021.4 |
| 20260903013629 | 82 | 222 | 0.0 | 0.0 | 0.00 | 0.00 | 0.00 | 73 | 1021.4 |
| 20260903013530 | 82 | 222 | 0.0 | 0.0 | 0.00 | 0.00 | 0.00 | 73 | 1021.4 |
| 20260903013426 | 82 | 222 | 0.0 | 0.0 | 0.00 | 0.00 | 0.00 | 73 | 1021.4 |
| 20260903013325 | 82 | 222 | 0.0 | 0.0 | 0.00 | 0.00 | 0.00 | 73 | 1021.4 |
| 20260903013226 | 82 | 222 | 0.0 | 0.0 | 0.00 | 0.00 | 0.00 | 73 | 1021.4 |
| 20260903013122 | 82 | 222 | 0.0 | 0.0 | 0.00 | 0.00 | 0.00 | 73 | 1021.3 |
| 20260903013023 | 82 | 222 | 0.0 | 0.0 | 0.00 | 0.00 | 0.00 | 73 | 1021.3 |
| 20260903012921 | 82 | 222 | 0.0 | 0.0 | 0.00 | 0.00 | 0.00 | 74 | 1021.3 |
| 20260903012819 | 82 | 222 | 0.0 | 0.0 | 0.00 | 0.00 | 0.00 | 73 | 1021.2 |
| 20260903012719 | 82 | 222 | 0.0 | 0.0 | 0.00 | 0.00 | 0.00 | 74 | 1021.2 |
| 20260903012617 | 82 | 222 | 0.0 | 0.0 | 0.00 | 0.00 | 0.00 | 74 | 1021.2 |
| 20260903012517 | 82 | 222 | 0.0 | 0.0 | 0.00 | 0.00 | 0.00 | 74 | 1021.2 |
| 20260903012416 | 82 | 222 | 0.0 | 0.0 | 0.00 | 0.00 | 0.00 | 74 | 1021.2 |
| 20260903012313 | 82 | 222 | 0.0 | 0.0 | 0.00 | 0.00 | 0.00 | 74 | 1021.2 |
| 20260903012205 | 82 | 222 | 0.0 | 0.0 | 0.00 | 0.00 | 0.00 | 74 | 1021.2 |
| 20260903012107 | 82 | 222 | 0.0 | 0.0 | 0.00 | 0.00 | 0.00 | 74 | 1021.2 |
| 20260903012004 | 82 | 222 | 0.0 | 0.0 | 0.00 | 0.00 | 0.00 | 74 | 1021.2 |
| 20260903011903 | 82 | 222 | 0.0 | 0.0 | 0.00 | 0.00 | 0.00 | 74 | 1021.1 |
| 20260903011803 | 81 | 222 | 0.0 | 0.0 | 0.00 | 0.00 | 0.00 | 74 | 1021.1 |
| 20260903011658 | 82 | 222 | 0.0 | 0.0 | 0.00 | 0.00 | 0.00 | 74 | 1021.1 |
| 20260903011558 | 82 | 222 | 0.0 | 0.0 | 0.00 | 0.00 | 0.00 | 74 | 1021.1 |
| 20260903011456 | 82 | 222 | 0.0 | 0.0 | 0.00 | 0.00 | 0.00 | 74 | 1021.1 |
| 20260903011356 | 81 | 222 | 0.0 | 0.0 | 0.00 | 0.00 | 0.00 | 74 | 1021.2 |
| 20260903011257 | 82 | 222 | 0.0 | 0.0 | 0.00 | 0.00 | 0.00 | 74 | 1021.1 |
| 20260903011156 | 81 | 222 | 0.0 | 0.0 | 0.00 | 0.00 | 0.00 | 74 | 1021.1 |
| 20260903011054 | 82 | 222 | 0.0 | 0.0 | 0.00 | 0.00 | 0.00 | 74 | 1021.1 |
| 20260903010954 | 82 | 222 | 0.0 | 0.0 | 0.00 | 0.00 | 0.00 | 74 | 1021.1 |
| 20260903010853 | 82 | 222 | 0.0 | 0.0 | 0.00 | 0.00 | 0.00 | 73 | 1021.1 |
| 20260903010750 | 82 | 222 | 0.0 | 0.0 | 0.00 | 0.00 | 0.00 | 74 | 1021.1 |
| 20260903010643 | 82 | 222 | 0.0 | 0.0 | 0.00 | 0.00 | 0.00 | 74 | 1021.1 |
| 20260903010542 | 81 | 222 | 0.0 | 0.0 | 0.00 | 0.00 | 0.00 | 74 | 1021.1 |
| 20260903010440 | 82 | 222 | 0.0 | 0.0 | 0.00 | 0.00 | 0.00 | 73 | 1021.0 |
| 20260903010341 | 82 | 221 | 0.0 | 0.0 | 0.00 | 0.00 | 0.00 | 73 | 1021.0 |
| 20260903010241 | 82 | 222 | 0.0 | 0.0 | 0.00 | 0.00 | 0.00 | 74 | 1021.1 |
| 20260903010141 | 82 | 222 | 0.0 | 0.0 | 0.00 | 0.00 | 0.00 | 73 | 1021.0 |
| 20260903010038 | 82 | 222 | 0.0 | 0.0 | 0.00 | 0.00 | 0.00 | 73 | 1021.0 |
| 20260903005939 | 82 | 222 | 0.0 | 0.0 | 0.00 | 0.00 | 0.00 | 73 | 1021.0 |
| 20260903005838 | 82 | 222 | 0.0 | 0.0 | 0.00 | 0.00 | 0.00 | 74 | 1021.0 |
| 20260903005735 | 82 | 222 | 0.0 | 0.0 | 0.00 | 0.00 | 0.00 | 73 | 1020.8 |
| 20260903005632 | 82 | 222 | 0.0 | 0.0 | 0.00 | 0.00 | 0.00 | 73 | 1020.9 |
| 20260903005532 | 82 | 223 | 0.0 | 0.0 | 0.00 | 0.00 | 0.00 | 74 | 1020.9 |
| 20260903005432 | 82 | 223 | 0.0 | 0.0 | 0.00 | 0.00 | 0.00 | 74 | 1020.8 |
| 20260903005330 | 82 | 226 | 0.0 | 0.0 | 0.00 | 0.00 | 0.00 | 74 | 1020.8 |
| 20260903005229 | 82 | 227 | 0.0 | 0.0 | 0.00 | 0.00 | 0.00 | 74 | 1020.8 |
| 20260903005120 | 82 | 227 | 0.0 | 0.0 | 0.00 | 0.00 | 0.00 | 73 | 1020.9 |
| 20260903005020 | 82 | 227 | 0.0 | 0.0 | 0.00 | 0.00 | 0.00 | 74 | 1020.9 |
| 20260903004922 | 82 | 227 | 0.0 | 0.0 | 0.00 | 0.00 | 0.00 | 74 | 1020.8 |
| 20260903004821 | 82 | 227 | 0.0 | 0.0 | 0.00 | 0.00 | 0.00 | 73 | 1021.0 |
| 20260903004718 | 82 | 227 | 0.0 | 0.0 | 0.00 | 0.00 | 0.00 | 74 | 1020.8 |
| 20260903004620 | 82 | 227 | 0.0 | 0.0 | 0.00 | 0.00 | 0.00 | 74 | 1020.9 |
| 20260903004518 | 82 | 227 | 0.0 | 0.0 | 0.00 | 0.00 | 0.00 | 74 | 1020.9 |
| 20260903004416 | 82 | 227 | 0.0 | 0.0 | 0.00 | 0.00 | 0.00 | 73 | 1021.0 |
| 20260903004315 | 82 | 227 | 0.0 | 0.0 | 0.00 | 0.00 | 0.00 | 73 | 1020.9 |
| 20260903004212 | 82 | 227 | 0.0 | 0.0 | 0.00 | 0.00 | 0.00 | 73 | 1021.0 |
| 20260903004107 | 82 | 227 | 0.0 | 0.0 | 0.00 | 0.00 | 0.00 | 73 | 1020.9 |
| 20260903004006 | 82 | 227 | 0.0 | 0.0 | 0.00 | 0.00 | 0.00 | 73 | 1020.9 |
| 20260903003907 | 82 | 227 | 0.0 | 0.0 | 0.00 | 0.00 | 0.00 | 73 | 1020.8 |
| 20260903003805 | 82 | 227 | 0.0 | 0.0 | 0.00 | 0.00 | 0.00 | 73 | 1020.8 |
| 20260903003707 | 82 | 227 | 0.0 | 0.0 | 0.00 | 0.00 | 0.00 | 73 | 1020.8 |
| 20260903003602 | 82 | 227 | 0.0 | 0.0 | 0.00 | 0.00 | 0.00 | 73 | 1020.9 |
| 20260903003501 | 82 | 227 | 0.0 | 0.0 | 0.00 | 0.00 | 0.00 | 73 | 1020.9 |
| 20260903003359 | 82 | 227 | 0.0 | 0.0 | 0.00 | 0.00 | 0.00 | 73 | 1020.9 |
| 20260903003258 | 82 | 227 | 0.0 | 0.0 | 0.00 | 0.00 | 0.00 | 73 | 1020.9 |
| 20260903003157 | 82 | 227 | 0.0 | 0.0 | 0.00 | 0.00 | 0.00 | 73 | 1020.9 |
| 20260903003057 | 82 | 227 | 0.0 | 0.0 | 0.00 | 0.00 | 0.00 | 73 | 1020.9 |
| 20260903002954 | 82 | 227 | 0.0 | 0.0 | 0.00 | 0.00 | 0.00 | 73 | 1020.8 |
| 20260903002855 | 82 | 227 | 0.0 | 0.0 | 0.00 | 0.00 | 0.00 | 73 | 1020.9 |
| 20260903002752 | 82 | 227 | 0.0 | 0.0 | 0.00 | 0.00 | 0.00 | 72 | 1020.9 |
| 20260903002651 | 82 | 227 | 0.0 | 0.0 | 0.00 | 0.00 | 0.00 | 72 | 1020.8 |
| 20260903002550 | 82 | 227 | 0.0 | 0.0 | 0.00 | 0.00 | 0.00 | 72 | 1020.9 |
| 20260903002450 | 82 | 227 | 0.0 | 0.0 | 0.00 | 0.00 | 0.00 | 72 | 1020.8 |
| 20260903002349 | 82 | 227 | 0.0 | 0.0 | 0.00 | 0.00 | 0.00 | 72 | 1020.8 |
| 20260903002248 | 82 | 227 | 0.0 | 0.0 | 0.00 | 0.00 | 0.00 | 72 | 1020.9 |
| 20260903002145 | 82 | 227 | 0.0 | 0.0 | 0.00 | 0.00 | 0.00 | 73 | 1021.0 |
| 20260903002037 | 82 | 227 | 0.0 | 0.0 | 0.00 | 0.00 | 0.00 | 73 | 1020.9 |
| 20260903001935 | 82 | 227 | 0.0 | 0.0 | 0.00 | 0.00 | 0.00 | 73 | 1020.9 |
| 20260903001834 | 82 | 227 | 0.0 | 0.0 | 0.00 | 0.00 | 0.00 | 72 | 1020.8 |
| 20260903001735 | 82 | 227 | 0.0 | 0.0 | 0.00 | 0.00 | 0.00 | 72 | 1020.8 |
| 20260903001636 | 82 | 227 | 0.0 | 0.0 | 0.00 | 0.00 | 0.00 | 73 | 1020.8 |
| 20260903001535 | 82 | 227 | 0.0 | 0.0 | 0.00 | 0.00 | 0.00 | 73 | 1020.8 |
| 20260903001433 | 82 | 227 | 0.0 | 0.0 | 0.00 | 0.00 | 0.00 | 72 | 1020.8 |
| 20260903001333 | 82 | 227 | 0.0 | 0.0 | 0.00 | 0.00 | 0.00 | 72 | 1020.7 |
| 20260903001231 | 82 | 227 | 0.0 | 0.0 | 0.00 | 0.00 | 0.00 | 73 | 1020.7 |
| 20260903001129 | 82 | 227 | 0.0 | 0.0 | 0.00 | 0.00 | 0.00 | 72 | 1020.7 |
| 20260903001027 | 83 | 227 | 0.0 | 0.0 | 0.00 | 0.00 | 0.00 | 73 | 1020.8 |
| 20260903000927 | 83 | 227 | 0.0 | 0.0 | 0.00 | 0.00 | 0.00 | 72 | 1020.8 |
| 20260903000826 | 83 | 227 | 0.0 | 0.0 | 0.00 | 0.00 | 0.00 | 72 | 1020.7 |
| 20260903000725 | 83 | 227 | 0.0 | 0.0 | 0.00 | 0.00 | 0.00 | 72 | 1020.7 |
| 20260903000623 | 83 | 227 | 0.0 | 0.0 | 0.00 | 0.00 | 0.00 | 72 | 1020.7 |
| 20260903000518 | 83 | 227 | 0.0 | 0.0 | 0.00 | 0.00 | 0.00 | 72 | 1020.7 |
| 20260903000417 | 83 | 227 | 0.0 | 0.0 | 0.00 | 0.00 | 0.00 | 73 | 1020.7 |
| 20260903000318 | 83 | 227 | 0.0 | 0.0 | 0.00 | 0.00 | 0.00 | 72 | 1020.7 |
| 20260903000215 | 83 | 227 | 0.0 | 0.0 | 0.00 | 0.00 | 0.00 | 72 | 1020.7 |
| 20260903000113 | 83 | 227 | 0.0 | 0.0 | 0.00 | 0.00 | 0.00 | 72 | 1020.6 |
| 20260903000014 | 83 | 227 | 0.0 | 0.0 | 0.00 | 0.00 | 0.00 | 72 | 1020.6 |
| 20260902235910 | 83 | 227 | 0.0 | 0.0 | 0.00 | 0.00 | 0.00 | 72 | 1020.6 |
| 20260902235810 | 83 | 227 | 0.0 | 0.0 | 0.00 | 0.00 | 0.00 | 72 | 1020.6 |
| 20260902235709 | 83 | 227 | 0.0 | 0.0 | 0.00 | 0.00 | 0.00 | 72 | 1020.6 |
| 20260902235607 | 83 | 227 | 0.0 | 0.0 | 0.00 | 0.00 | 0.00 | 72 | 1020.5 |
| 20260902235504 | 83 | 227 | 0.0 | 0.0 | 0.00 | 0.00 | 0.00 | 72 | 1020.5 |
| 20260902235403 | 83 | 227 | 0.0 | 0.0 | 0.00 | 0.00 | 0.00 | 72 | 1020.6 |
| 20260902235306 | 83 | 227 | 0.0 | 0.0 | 0.00 | 0.00 | 0.00 | 71 | 1020.4 |
| 20260902235203 | 83 | 227 | 0.0 | 0.0 | 0.00 | 0.00 | 0.00 | 71 | 1020.4 |
| 20260902235101 | 83 | 227 | 0.0 | 0.0 | 0.00 | 0.00 | 0.00 | 71 | 1020.4 |
| 20260902234955 | 83 | 227 | 0.0 | 0.0 | 0.00 | 0.00 | 0.00 | 71 | 1020.4 |
| 20260902234855 | 83 | 227 | 0.0 | 0.0 | 0.00 | 0.00 | 0.00 | 72 | 1020.4 |
| 20260902234754 | 83 | 227 | 0.0 | 0.0 | 0.00 | 0.00 | 0.00 | 72 | 1020.4 |
| 20260902234653 | 83 | 227 | 0.0 | 0.0 | 0.00 | 0.00 | 0.00 | 72 | 1020.3 |
| 20260902234551 | 83 | 227 | 0.0 | 0.0 | 0.00 | 0.00 | 0.00 | 72 | 1020.4 |
| 20260902234446 | 83 | 227 | 0.0 | 0.0 | 0.00 | 0.00 | 0.00 | 72 | 1020.4 |
| 20260902234343 | 83 | 227 | 0.0 | 0.0 | 0.00 | 0.00 | 0.00 | 71 | 1020.3 |
| 20260902234244 | 84 | 227 | 0.0 | 0.0 | 0.00 | 0.00 | 0.00 | 71 | 1020.4 |
| 20260902234144 | 84 | 227 | 0.0 | 0.0 | 0.00 | 0.00 | 0.00 | 72 | 1020.4 |
| 20260902234044 | 84 | 227 | 0.0 | 0.0 | 0.00 | 0.00 | 0.00 | 72 | 1020.4 |
| 20260902233944 | 84 | 227 | 0.0 | 0.0 | 0.00 | 0.00 | 0.00 | 71 | 1020.4 |
| 20260902233843 | 84 | 227 | 0.0 | 0.0 | 0.00 | 0.00 | 0.00 | 72 | 1020.5 |
| 20260902233740 | 84 | 227 | 0.0 | 0.0 | 0.00 | 0.00 | 0.00 | 72 | 1020.4 |
| 20260902233641 | 84 | 227 | 0.0 | 0.0 | 0.00 | 0.00 | 0.00 | 72 | 1020.5 |
| 20260902233539 | 84 | 227 | 0.0 | 0.0 | 0.00 | 0.00 | 0.00 | 72 | 1020.5 |
| 20260902233433 | 84 | 227 | 0.0 | 0.0 | 0.00 | 0.00 | 0.00 | 72 | 1020.5 |
| 20260902233333 | 84 | 227 | 0.0 | 0.0 | 0.00 | 0.00 | 0.00 | 72 | 1020.5 |
| 20260902233234 | 84 | 227 | 0.0 | 0.0 | 0.00 | 0.00 | 0.00 | 72 | 1020.6 |
| 20260902233129 | 84 | 227 | 0.0 | 0.0 | 0.00 | 0.00 | 0.00 | 71 | 1020.6 |
| 20260902233029 | 84 | 227 | 0.0 | 0.0 | 0.00 | 0.00 | 0.00 | 71 | 1020.6 |
| 20260902232926 | 84 | 260 | 0.0 | 0.0 | 0.00 | 0.00 | 0.00 | 71 | 1020.5 |
| 20260902232827 | 84 | 272 | 0.0 | 0.0 | 0.00 | 0.00 | 0.00 | 71 | 1020.5 |
| 20260902232727 | 84 | 279 | 0.0 | 0.0 | 0.00 | 0.00 | 0.00 | 71 | 1020.5 |
| 20260902232623 | 84 | 236 | 0.0 | 0.0 | 0.00 | 0.00 | 0.00 | 71 | 1020.5 |
| 20260902232522 | 84 | 138 | 0.0 | 0.0 | 0.00 | 0.00 | 0.00 | 71 | 1020.5 |
| 20260902232422 | 85 | 138 | 0.0 | 0.0 | 0.00 | 0.00 | 0.00 | 71 | 1020.5 |
| 20260902232321 | 85 | 138 | 0.0 | 0.0 | 0.00 | 0.00 | 0.00 | 71 | 1020.6 |
| 20260902232220 | 85 | 135 | 0.0 | 0.0 | 0.00 | 0.00 | 0.00 | 72 | 1020.4 |
| 20260902232119 | 85 | 134 | 0.0 | 0.0 | 0.00 | 0.00 | 0.00 | 72 | 1020.5 |
| 20260902232017 | 85 | 134 | 0.0 | 0.0 | 0.00 | 0.00 | 0.00 | 72 | 1020.4 |
| 20260902231907 | 85 | 134 | 0.0 | 0.0 | 0.00 | 0.00 | 0.00 | 72 | 1020.5 |
| 20260902231806 | 85 | 134 | 0.0 | 0.0 | 0.00 | 0.00 | 0.00 | 71 | 1020.4 |
| 20260902231707 | 85 | 134 | 0.0 | 0.0 | 0.00 | 0.00 | 0.00 | 70 | 1020.4 |
| 20260902231607 | 85 | 134 | 0.0 | 0.0 | 0.00 | 0.00 | 0.00 | 70 | 1020.4 |
| 20260902231507 | 85 | 134 | 0.0 | 0.0 | 0.00 | 0.00 | 0.00 | 70 | 1020.5 |
| 20260902231402 | 85 | 134 | 0.0 | 0.0 | 0.00 | 0.00 | 0.00 | 70 | 1020.5 |
| 20260902231303 | 85 | 134 | 0.0 | 0.0 | 0.00 | 0.00 | 0.00 | 70 | 1020.5 |
| 20260902231203 | 85 | 134 | 0.0 | 0.0 | 0.00 | 0.00 | 0.00 | 70 | 1020.5 |
| 20260902231104 | 85 | 134 | 0.0 | 0.0 | 0.00 | 0.00 | 0.00 | 70 | 1020.4 |
| 20260902231000 | 85 | 134 | 0.0 | 0.0 | 0.00 | 0.00 | 0.00 | 70 | 1020.5 |
| 20260902230858 | 85 | 134 | 0.0 | 0.0 | 0.00 | 0.00 | 0.00 | 70 | 1020.4 |
| 20260902230759 | 85 | 134 | 0.0 | 0.0 | 0.00 | 0.00 | 0.00 | 69 | 1020.4 |
| 20260902230656 | 85 | 134 | 0.0 | 0.0 | 0.00 | 0.00 | 0.00 | 69 | 1020.4 |
| 20260902230558 | 85 | 134 | 0.0 | 0.0 | 0.00 | 0.00 | 0.00 | 69 | 1020.3 |
| 20260902230455 | 85 | 134 | 0.0 | 0.0 | 0.00 | 0.00 | 0.00 | 69 | 1020.4 |
| 20260902230349 | 85 | 134 | 0.0 | 0.0 | 0.00 | 0.00 | 0.00 | 69 | 1020.4 |
| 20260902230249 | 85 | 134 | 0.0 | 0.0 | 0.00 | 0.00 | 0.00 | 68 | 1020.4 |
| 20260902230149 | 85 | 134 | 0.0 | 0.0 | 0.00 | 0.00 | 0.00 | 68 | 1020.4 |
| 20260902230047 | 85 | 134 | 0.0 | 0.0 | 0.00 | 0.00 | 0.00 | 68 | 1020.5 |
| 20260902225944 | 85 | 134 | 0.0 | 0.0 | 0.00 | 0.00 | 0.00 | 68 | 1020.5 |
| 20260902225845 | 85 | 134 | 0.0 | 0.0 | 0.00 | 0.00 | 0.00 | 68 | 1020.5 |
| 20260902225743 | 86 | 134 | 0.0 | 0.0 | 0.00 | 0.00 | 0.00 | 67 | 1020.6 |
| 20260902225641 | 86 | 134 | 0.0 | 0.0 | 0.00 | 0.00 | 0.00 | 67 | 1020.4 |
| 20260902225541 | 86 | 134 | 0.0 | 0.0 | 0.00 | 0.00 | 0.00 | 67 | 1020.4 |
| 20260902225439 | 86 | 134 | 0.0 | 0.0 | 0.00 | 0.00 | 0.00 | 67 | 1020.5 |
| 20260902225337 | 86 | 134 | 0.0 | 0.0 | 0.00 | 0.00 | 0.00 | 67 | 1020.5 |
| 20260902225237 | 86 | 134 | 0.0 | 0.0 | 0.00 | 0.00 | 0.00 | 66 | 1020.5 |
| 20260902225135 | 86 | 134 | 0.0 | 0.0 | 0.00 | 0.00 | 0.00 | 66 | 1020.5 |
| 20260902225035 | 86 | 134 | 0.0 | 0.0 | 0.00 | 0.00 | 0.00 | 66 | 1020.4 |
| 20260902224933 | 86 | 134 | 0.0 | 0.0 | 0.00 | 0.00 | 0.00 | 66 | 1020.5 |
| 20260902224825 | 86 | 134 | 0.0 | 0.0 | 0.00 | 0.00 | 0.00 | 67 | 1020.5 |
| 20260902224726 | 86 | 134 | 0.0 | 0.0 | 0.00 | 0.00 | 0.00 | 66 | 1020.5 |
| 20260902224627 | 86 | 134 | 0.0 | 0.0 | 0.00 | 0.00 | 0.00 | 66 | 1020.5 |
| 20260902224525 | 86 | 134 | 0.0 | 0.0 | 0.00 | 0.00 | 0.00 | 66 | 1020.5 |
| 20260902224423 | 86 | 134 | 0.0 | 0.0 | 0.00 | 0.00 | 0.00 | 66 | 1020.4 |
| 20260902224320 | 86 | 134 | 0.0 | 0.0 | 0.00 | 0.00 | 0.00 | 67 | 1020.5 |
| 20260902224220 | 86 | 134 | 0.0 | 0.0 | 0.00 | 0.00 | 0.00 | 66 | 1020.4 |
| 20260902224121 | 87 | 134 | 0.0 | 0.0 | 0.00 | 0.00 | 0.00 | 66 | 1020.4 |
| 20260902224019 | 87 | 134 | 0.0 | 0.0 | 0.00 | 0.00 | 0.00 | 66 | 1020.5 |
| 20260902223916 | 87 | 134 | 0.0 | 0.0 | 0.00 | 0.00 | 0.00 | 66 | 1020.5 |
| 20260902223816 | 87 | 134 | 0.0 | 0.0 | 0.00 | 0.00 | 0.00 | 66 | 1020.5 |
| 20260902223715 | 87 | 134 | 0.0 | 0.0 | 0.00 | 0.00 | 0.00 | 65 | 1020.5 |
| 20260902223612 | 87 | 134 | 0.0 | 0.0 | 0.00 | 0.00 | 0.00 | 65 | 1020.5 |
| 20260902223512 | 87 | 134 | 0.0 | 0.0 | 0.00 | 0.00 | 0.00 | 65 | 1020.5 |
| 20260902223411 | 87 | 134 | 0.0 | 0.0 | 0.00 | 0.00 | 0.00 | 65 | 1020.5 |
| 20260902223306 | 87 | 134 | 0.0 | 0.0 | 0.00 | 0.00 | 0.00 | 65 | 1020.5 |
| 20260902223205 | 87 | 134 | 0.0 | 0.0 | 0.00 | 0.00 | 0.00 | 64 | 1020.5 |
| 20260902223106 | 87 | 134 | 0.0 | 0.0 | 0.00 | 0.00 | 0.00 | 65 | 1020.5 |
| 20260902223006 | 87 | 134 | 0.0 | 0.0 | 0.00 | 0.00 | 0.00 | 64 | 1020.6 |
| 20260902222908 | 87 | 134 | 0.0 | 0.0 | 0.00 | 0.00 | 0.00 | 64 | 1020.6 |
| 20260902222807 | 87 | 134 | 0.0 | 0.0 | 0.00 | 0.00 | 0.00 | 64 | 1020.6 |
| 20260902222706 | 88 | 134 | 0.0 | 0.0 | 0.00 | 0.00 | 0.00 | 64 | 1020.6 |
| 20260902222608 | 88 | 134 | 0.0 | 0.0 | 0.00 | 0.00 | 0.00 | 64 | 1020.6 |
| 20260902222504 | 88 | 134 | 0.0 | 0.0 | 0.00 | 0.00 | 0.00 | 63 | 1020.6 |
| 20260902222403 | 88 | 135 | 0.0 | 0.0 | 0.00 | 0.00 | 0.00 | 63 | 1020.6 |
| 20260902222305 | 88 | 134 | 0.0 | 0.0 | 0.00 | 0.00 | 0.00 | 63 | 1020.6 |
| 20260902222203 | 88 | 134 | 0.0 | 0.0 | 0.00 | 0.00 | 0.00 | 62 | 1020.6 |
| 20260902222101 | 88 | 134 | 0.0 | 0.0 | 0.00 | 0.00 | 0.00 | 62 | 1020.7 |
| 20260902222004 | 88 | 134 | 0.0 | 0.0 | 0.00 | 0.00 | 0.00 | 62 | 1020.7 |
| 20260902221902 | 88 | 134 | 0.0 | 0.0 | 0.00 | 0.00 | 0.00 | 61 | 1020.7 |
| 20260902221802 | 88 | 134 | 0.0 | 0.0 | 0.00 | 0.00 | 0.00 | 61 | 1020.7 |
| 20260902221702 | 88 | 134 | 0.0 | 0.0 | 0.00 | 0.00 | 0.00 | 61 | 1020.7 |
| 20260902221556 | 88 | 134 | 0.0 | 0.0 | 0.00 | 0.00 | 0.00 | 62 | 1020.7 |
| 20260902221457 | 89 | 134 | 0.0 | 0.0 | 0.00 | 0.00 | 0.00 | 61 | 1020.7 |
| 20260902221357 | 89 | 134 | 0.0 | 0.0 | 0.00 | 0.00 | 0.00 | 61 | 1020.7 |
| 20260902221256 | 89 | 134 | 0.0 | 0.0 | 0.00 | 0.00 | 0.00 | 62 | 1020.7 |
| 20260902221156 | 89 | 134 | 0.0 | 0.0 | 0.00 | 0.00 | 0.00 | 62 | 1020.7 |
| 20260902221056 | 89 | 134 | 0.0 | 0.0 | 0.00 | 0.00 | 0.00 | 62 | 1020.7 |
| 20260902220953 | 89 | 134 | 0.0 | 0.0 | 0.00 | 0.00 | 0.00 | 61 | 1020.6 |
| 20260902220855 | 89 | 134 | 0.0 | 0.0 | 0.00 | 0.00 | 0.00 | 61 | 1020.7 |
| 20260902220752 | 89 | 134 | 0.0 | 0.0 | 0.00 | 0.00 | 0.00 | 60 | 1020.7 |
| 20260902220650 | 89 | 134 | 0.0 | 0.0 | 0.00 | 0.00 | 0.00 | 61 | 1020.7 |
| 20260902220546 | 89 | 134 | 0.0 | 0.0 | 0.00 | 0.00 | 0.00 | 60 | 1020.7 |
| 20260902220445 | 89 | 134 | 0.0 | 0.0 | 0.00 | 0.00 | 0.00 | 60 | 1020.7 |
| 20260902220344 | 89 | 134 | 0.0 | 0.0 | 0.00 | 0.00 | 0.00 | 60 | 1020.7 |
| 20260902220242 | 89 | 134 | 0.0 | 0.0 | 0.00 | 0.00 | 0.00 | 59 | 1020.7 |
| 20260902220140 | 89 | 134 | 0.0 | 0.0 | 0.00 | 0.00 | 0.00 | 59 | 1020.7 |
| 20260902220035 | 89 | 134 | 0.0 | 0.0 | 0.00 | 0.00 | 0.00 | 59 | 1020.7 |
| 20260902215936 | 89 | 134 | 0.0 | 0.0 | 0.00 | 0.00 | 0.00 | 61 | 1020.6 |
| 20260902215835 | 89 | 134 | 0.0 | 0.0 | 0.00 | 0.00 | 0.00 | 60 | 1020.7 |
| 20260902215735 | 89 | 134 | 0.0 | 0.0 | 0.00 | 0.00 | 0.00 | 59 | 1020.7 |
| 20260902215635 | 89 | 134 | 0.0 | 0.0 | 0.00 | 0.00 | 0.00 | 60 | 1020.8 |
| 20260902215533 | 89 | 134 | 0.0 | 0.0 | 0.00 | 0.00 | 0.00 | 59 | 1020.8 |
| 20260902215432 | 89 | 134 | 0.0 | 0.0 | 0.00 | 0.00 | 0.00 | 58 | 1020.7 |
| 20260902215333 | 89 | 134 | 0.0 | 0.0 | 0.00 | 0.00 | 0.00 | 59 | 1020.7 |
| 20260902215231 | 89 | 134 | 0.0 | 0.0 | 0.00 | 0.00 | 0.00 | 59 | 1020.7 |
| 20260902215128 | 90 | 134 | 0.0 | 0.0 | 0.00 | 0.00 | 0.00 | 59 | 1020.7 |
| 20260902215024 | 89 | 134 | 0.0 | 0.0 | 0.00 | 0.00 | 0.00 | 59 | 1020.7 |
| 20260902214921 | 89 | 134 | 0.0 | 0.0 | 0.00 | 0.00 | 0.00 | 61 | 1020.7 |
| 20260902214822 | 90 | 134 | 0.0 | 0.0 | 0.00 | 0.00 | 0.00 | 59 | 1020.6 |
| 20260902214719 | 90 | 134 | 0.0 | 0.0 | 0.00 | 0.00 | 0.00 | 60 | 1020.7 |
| 20260902214619 | 90 | 134 | 0.0 | 0.0 | 0.00 | 0.00 | 0.00 | 58 | 1020.7 |
| 20260902214515 | 90 | 134 | 0.0 | 0.0 | 0.00 | 0.00 | 0.00 | 59 | 1020.7 |
| 20260902214412 | 90 | 134 | 0.0 | 0.0 | 0.00 | 0.00 | 0.00 | 59 | 1020.7 |
| 20260902214313 | 89 | 134 | 0.0 | 0.0 | 0.00 | 0.00 | 0.00 | 60 | 1020.7 |
| 20260902214212 | 89 | 134 | 0.0 | 0.0 | 0.00 | 0.00 | 0.00 | 60 | 1020.7 |
| 20260902214113 | 89 | 134 | 0.0 | 0.0 | 0.00 | 0.00 | 0.00 | 59 | 1020.7 |
| 20260902214008 | 90 | 134 | 0.0 | 0.0 | 0.00 | 0.00 | 0.00 | 61 | 1020.7 |
| 20260902213908 | 89 | 134 | 0.0 | 0.0 | 0.00 | 0.00 | 0.00 | 61 | 1020.6 |
| 20260902213808 | 90 | 134 | 0.0 | 0.0 | 0.00 | 0.00 | 0.00 | 60 | 1020.7 |
| 20260902213708 | 90 | 134 | 0.0 | 0.0 | 0.00 | 0.00 | 0.00 | 60 | 1020.7 |
| 20260902213607 | 89 | 134 | 0.0 | 0.0 | 0.00 | 0.00 | 0.00 | 60 | 1020.7 |
| 20260902213502 | 89 | 134 | 0.0 | 0.0 | 0.00 | 0.00 | 0.00 | 59 | 1020.6 |
| 20260902213401 | 89 | 134 | 0.0 | 0.0 | 0.00 | 0.00 | 0.00 | 59 | 1020.6 |
| 20260902213303 | 89 | 119 | 0.0 | 0.0 | 0.00 | 0.00 | 0.00 | 59 | 1020.7 |
| 20260902213201 | 89 | 118 | 0.0 | 0.0 | 0.00 | 0.00 | 0.00 | 62 | 1020.7 |
| 20260902213103 | 89 | 120 | 0.0 | 0.0 | 0.00 | 0.00 | 0.00 | 60 | 1020.7 |
| 20260902213000 | 89 | 121 | 0.0 | 0.0 | 0.00 | 0.00 | 0.00 | 58 | 1020.7 |
| 20260902212858 | 89 | 121 | 0.0 | 0.0 | 0.00 | 0.00 | 0.00 | 58 | 1020.7 |
| 20260902212757 | 89 | 121 | 0.0 | 0.0 | 0.00 | 0.00 | 0.00 | 58 | 1020.7 |
| 20260902212657 | 89 | 121 | 0.0 | 0.0 | 0.00 | 0.00 | 0.00 | 58 | 1020.7 |
| 20260902212554 | 89 | 122 | 0.0 | 0.0 | 0.00 | 0.00 | 0.00 | 60 | 1020.7 |
| 20260902212455 | 89 | 98 | 0.0 | 0.0 | 0.00 | 0.00 | 0.00 | 58 | 1020.7 |
| 20260902212352 | 89 | 95 | 0.0 | 0.0 | 0.00 | 0.00 | 0.00 | 60 | 1020.7 |
| 20260902212253 | 89 | 95 | 0.0 | 0.0 | 0.00 | 0.00 | 0.00 | 57 | 1020.7 |
| 20260902212150 | 89 | 74 | 0.0 | 0.0 | 0.00 | 0.00 | 0.00 | 55 | 1020.7 |
| 20260902212051 | 89 | 74 | 0.0 | 0.0 | 0.00 | 0.00 | 0.00 | 54 | 1020.7 |
| 20260902211949 | 89 | 74 | 0.0 | 0.0 | 0.00 | 0.00 | 0.00 | 54 | 1020.7 |
| 20260902211848 | 89 | 74 | 0.0 | 0.0 | 0.00 | 0.00 | 0.00 | 56 | 1020.6 |
| 20260902211748 | 89 | 74 | 0.0 | 0.0 | 0.00 | 0.00 | 0.00 | 57 | 1020.7 |
| 20260902211644 | 89 | 74 | 0.0 | 0.0 | 0.00 | 0.00 | 0.00 | 58 | 1020.6 |
| 20260902211544 | 89 | 5 | 0.0 | 0.0 | 0.00 | 0.00 | 0.00 | 57 | 1020.6 |
| 20260902211446 | 89 | 5 | 0.0 | 0.0 | 0.00 | 0.00 | 0.00 | 56 | 1020.6 |
| 20260902211345 | 89 | 5 | 0.0 | 0.0 | 0.00 | 0.00 | 0.00 | 57 | 1020.6 |
| 20260902211244 | 89 | 5 | 0.0 | 0.0 | 0.00 | 0.00 | 0.00 | 57 | 1020.7 |
| 20260902211141 | 89 | 5 | 0.0 | 0.0 | 0.00 | 0.00 | 0.00 | 57 | 1020.8 |
| 20260902211043 | 89 | 5 | 0.0 | 0.0 | 0.00 | 0.00 | 0.00 | 57 | 1020.6 |
| 20260902210940 | 89 | 5 | 0.0 | 0.0 | 0.00 | 0.00 | 0.00 | 58 | 1020.7 |
| 20260902210838 | 89 | 5 | 0.0 | 0.0 | 0.00 | 0.00 | 0.00 | 58 | 1020.8 |
| 20260902210739 | 89 | 5 | 0.0 | 0.0 | 0.00 | 0.00 | 0.00 | 57 | 1020.8 |
| 20260902210635 | 89 | 5 | 0.0 | 0.0 | 0.00 | 0.00 | 0.00 | 62 | 1020.7 |
| 20260902210537 | 89 | 5 | 0.0 | 0.0 | 0.00 | 0.00 | 0.00 | 61 | 1020.7 |
| 20260902210434 | 89 | 5 | 0.0 | 0.0 | 0.00 | 0.00 | 0.00 | 59 | 1020.8 |
| 20260902210333 | 89 | 5 | 0.0 | 0.0 | 0.00 | 0.00 | 0.00 | 57 | 1020.7 |
| 20260902210233 | 89 | 5 | 0.0 | 0.0 | 0.00 | 0.00 | 0.00 | 58 | 1020.8 |
| 20260902210131 | 89 | 5 | 0.0 | 0.0 | 0.00 | 0.00 | 0.00 | 60 | 1020.8 |
| 20260902210029 | 89 | 5 | 0.0 | 0.0 | 0.00 | 0.00 | 0.00 | 61 | 1020.8 |
| 20260902205930 | 89 | 5 | 0.0 | 0.0 | 0.00 | 0.00 | 0.00 | 59 | 1020.7 |
| 20260902205830 | 89 | 5 | 0.0 | 0.0 | 0.00 | 0.00 | 0.00 | 57 | 1020.8 |
| 20260902205726 | 89 | 5 | 0.0 | 0.0 | 0.00 | 0.00 | 0.00 | 57 | 1020.7 |
| 20260902205625 | 89 | 5 | 0.0 | 0.0 | 0.00 | 0.00 | 0.00 | 58 | 1020.7 |
| 20260902205524 | 89 | 5 | 0.0 | 0.0 | 0.00 | 0.00 | 0.00 | 58 | 1020.8 |
| 20260902205425 | 89 | 5 | 0.0 | 0.0 | 0.00 | 0.00 | 0.00 | 56 | 1020.8 |
| 20260902205324 | 89 | 5 | 0.0 | 0.0 | 0.00 | 0.00 | 0.00 | 57 | 1020.8 |
| 20260902205217 | 89 | 5 | 0.0 | 0.0 | 0.00 | 0.00 | 0.00 | 59 | 1020.8 |
| 20260902205118 | 89 | 5 | 0.0 | 0.0 | 0.00 | 0.00 | 0.00 | 57 | 1020.8 |
| 20260902205017 | 89 | 5 | 0.0 | 0.9 | 0.00 | 0.00 | 0.00 | 58 | 1020.9 |
| 20260902204918 | 89 | 5 | 0.0 | 0.9 | 0.00 | 0.00 | 0.00 | 58 | 1020.8 |
| 20260902204819 | 89 | 5 | 0.0 | 0.9 | 0.00 | 0.00 | 0.00 | 61 | 1020.8 |
| 20260902204719 | 89 | 5 | 0.0 | 0.9 | 0.00 | 0.00 | 0.00 | 62 | 1020.8 |
| 20260902204616 | 89 | 5 | 0.0 | 1.7 | 0.00 | 0.00 | 0.00 | 60 | 1020.8 |
| 20260902204517 | 89 | 5 | 0.0 | 1.7 | 0.00 | 0.00 | 0.00 | 58 | 1020.8 |
| 20260902204414 | 89 | 5 | 0.0 | 1.7 | 0.00 | 0.00 | 0.00 | 58 | 1020.8 |
| 20260902204314 | 89 | 0 | 0.0 | 1.7 | 0.00 | 0.00 | 0.00 | 59 | 1020.8 |
| 20260902204215 | 89 | 0 | 0.0 | 1.7 | 0.00 | 0.00 | 0.00 | 61 | 1020.8 |
| 20260902204114 | 89 | 0 | 0.0 | 1.7 | 0.00 | 0.00 | 0.00 | 58 | 1020.8 |
| 20260902204015 | 89 | 5 | 0.0 | 1.7 | 0.00 | 0.00 | 0.00 | 59 | 1020.8 |
| 20260902203913 | 89 | 5 | 0.0 | 2.6 | 0.00 | 0.00 | 0.00 | 59 | 1020.9 |
| 20260902203812 | 89 | 331 | 0.0 | 2.6 | 0.00 | 0.00 | 0.00 | 61 | 1020.8 |
| 20260902203711 | 89 | 331 | 0.0 | 2.6 | 0.00 | 0.00 | 0.00 | 60 | 1020.8 |
| 20260902203613 | 89 | 11 | 0.0 | 2.6 | 0.00 | 0.00 | 0.00 | 59 | 1020.8 |
| 20260902203513 | 89 | 26 | 0.0 | 2.6 | 0.00 | 0.00 | 0.00 | 58 | 1020.8 |
| 20260902203412 | 89 | 26 | 0.0 | 2.6 | 0.00 | 0.00 | 0.00 | 61 | 1020.8 |
| 20260902203311 | 89 | 27 | 0.0 | 2.6 | 0.00 | 0.00 | 0.00 | 59 | 1020.7 |
| 20260902203213 | 89 | 26 | 0.0 | 2.6 | 0.00 | 0.00 | 0.00 | 59 | 1020.8 |
| 20260902203111 | 89 | 26 | 0.0 | 2.6 | 0.00 | 0.00 | 0.00 | 59 | 1020.8 |
| 20260902203005 | 89 | 37 | 0.0 | 2.6 | 0.00 | 0.00 | 0.00 | 57 | 1020.8 |
| 20260902202906 | 89 | 23 | 0.0 | 2.6 | 0.00 | 0.00 | 0.00 | 58 | 1020.8 |
| 20260902202805 | 89 | 0 | 0.0 | 2.6 | 0.00 | 0.00 | 0.00 | 60 | 1020.8 |
| 20260902202706 | 89 | 16 | 0.0 | 2.6 | 0.00 | 0.00 | 0.00 | 62 | 1020.8 |
| 20260902202606 | 89 | 39 | 0.0 | 2.6 | 0.00 | 0.00 | 0.00 | 59 | 1020.8 |
| 20260902202505 | 89 | 20 | 0.0 | 2.6 | 0.00 | 0.00 | 0.00 | 61 | 1020.8 |
| 20260902202405 | 89 | 13 | 0.0 | 2.6 | 0.00 | 0.00 | 0.00 | 60 | 1020.8 |
| 20260902202306 | 89 | 59 | 0.0 | 2.6 | 0.00 | 0.00 | 0.00 | 62 | 1020.8 |
| 20260902202206 | 89 | 355 | 0.0 | 1.7 | 0.00 | 0.00 | 0.00 | 60 | 1020.8 |
| 20260902202105 | 89 | 355 | 0.0 | 1.7 | 0.00 | 0.00 | 0.00 | 59 | 1020.8 |
| 20260902202006 | 89 | 355 | 0.0 | 1.7 | 0.00 | 0.00 | 0.00 | 59 | 1020.9 |
| 20260902201905 | 89 | 38 | 0.0 | 0.0 | 0.00 | 0.00 | 0.00 | 59 | 1020.9 |
| 20260902201807 | 89 | 38 | 0.0 | 0.0 | 0.00 | 0.00 | 0.00 | 61 | 1020.9 |
| 20260902201707 | 89 | 36 | 0.0 | 0.0 | 0.00 | 0.00 | 0.00 | 62 | 1020.9 |
| 20260902201605 | 89 | 51 | 0.0 | 0.0 | 0.00 | 0.00 | 0.00 | 62 | 1020.9 |
| 20260902201507 | 89 | 10 | 0.0 | 0.0 | 0.00 | 0.00 | 0.00 | 63 | 1020.9 |
| 20260902201407 | 88 | 9 | 0.0 | 0.0 | 0.00 | 0.00 | 0.00 | 60 | 1020.8 |
| 20260902201300 | 88 | 9 | 0.0 | 0.0 | 0.00 | 0.00 | 0.00 | 59 | 1020.9 |
| 20260902201159 | 88 | 10 | 0.0 | 0.0 | 0.00 | 0.00 | 0.00 | 60 | 1020.9 |
| 20260902201100 | 88 | 74 | 0.0 | 0.0 | 0.00 | 0.00 | 0.00 | 60 | 1020.9 |
| 20260902201001 | 89 | 84 | 0.0 | 0.0 | 0.00 | 0.00 | 0.00 | 61 | 1020.9 |
| 20260902200901 | 89 | 46 | 0.0 | 0.0 | 0.00 | 0.00 | 0.00 | 59 | 1020.9 |
| 20260902200757 | 89 | 36 | 0.0 | 0.0 | 0.00 | 0.00 | 0.00 | 60 | 1021.0 |
| 20260902200655 | 89 | 55 | 0.0 | 0.0 | 0.00 | 0.00 | 0.00 | 60 | 1021.0 |
| 20260902200553 | 89 | 37 | 0.0 | 0.0 | 0.00 | 0.00 | 0.00 | 61 | 1020.9 |
| 20260902200455 | 89 | 12 | 0.0 | 0.0 | 0.00 | 0.00 | 0.00 | 60 | 1021.0 |
| 20260902200352 | 89 | 326 | 0.0 | 0.0 | 0.00 | 0.00 | 0.00 | 61 | 1021.0 |
| 20260902200245 | 89 | 325 | 0.0 | 0.0 | 0.00 | 0.00 | 0.00 | 62 | 1021.0 |
| 20260902200147 | 89 | 298 | 0.0 | 0.0 | 0.00 | 0.00 | 0.00 | 63 | 1021.0 |
| 20260902200046 | 88 | 330 | 0.0 | 0.0 | 0.00 | 0.00 | 0.00 | 60 | 1021.0 |
| 20260902195943 | 88 | 329 | 0.0 | 0.0 | 0.00 | 0.00 | 0.00 | 58 | 1021.1 |
| 20260902195843 | 88 | 323 | 0.0 | 0.0 | 0.00 | 0.00 | 0.00 | 58 | 1020.9 |
| 20260902195738 | 88 | 323 | 0.0 | 0.0 | 0.00 | 0.00 | 0.00 | 58 | 1021.0 |
| 20260902195637 | 88 | 321 | 0.0 | 0.0 | 0.00 | 0.00 | 0.00 | 62 | 1021.0 |
| 20260902195536 | 88 | 338 | 0.0 | 0.0 | 0.00 | 0.00 | 0.00 | 59 | 1020.9 |
| 20260902195436 | 88 | 323 | 0.0 | 0.0 | 0.00 | 0.00 | 0.00 | 59 | 1021.0 |
| 20260902195337 | 88 | 320 | 0.0 | 0.0 | 0.00 | 0.00 | 0.00 | 60 | 1021.0 |
| 20260902195233 | 88 | 324 | 0.0 | 0.0 | 0.00 | 0.00 | 0.00 | 60 | 1021.0 |
| 20260902195130 | 88 | 324 | 0.0 | 0.0 | 0.00 | 0.00 | 0.00 | 60 | 1021.0 |
| 20260902195031 | 88 | 324 | 0.0 | 0.0 | 0.00 | 0.00 | 0.00 | 61 | 1021.1 |
| 20260902194931 | 88 | 323 | 0.0 | 0.0 | 0.00 | 0.00 | 0.00 | 60 | 1021.1 |
| 20260902194831 | 88 | 62 | 0.0 | 0.0 | 0.00 | 0.00 | 0.00 | 60 | 1021.1 |
| 20260902194731 | 88 | 44 | 0.0 | 0.0 | 0.00 | 0.00 | 0.00 | 61 | 1021.1 |
| 20260902194629 | 88 | 31 | 0.0 | 0.0 | 0.00 | 0.00 | 0.00 | 59 | 1021.0 |
| 20260902194528 | 88 | 31 | 0.0 | 0.0 | 0.00 | 0.00 | 0.00 | 59 | 1021.1 |
| 20260902194428 | 88 | 28 | 0.0 | 0.0 | 0.00 | 0.00 | 0.00 | 60 | 1021.2 |
| 20260902194325 | 88 | 66 | 0.0 | 0.0 | 0.00 | 0.00 | 0.00 | 59 | 1021.2 |
| 20260902194226 | 88 | 71 | 0.0 | 0.0 | 0.00 | 0.00 | 0.00 | 60 | 1021.1 |
| 20260902194125 | 88 | 71 | 0.0 | 0.0 | 0.00 | 0.00 | 0.00 | 59 | 1021.2 |
| 20260902194021 | 88 | 5 | 0.0 | 0.0 | 0.00 | 0.00 | 0.00 | 59 | 1021.2 |
| 20260902193923 | 88 | 355 | 0.0 | 0.0 | 0.00 | 0.00 | 0.00 | 60 | 1021.2 |
| 20260902193821 | 88 | 28 | 0.0 | 0.0 | 0.00 | 0.00 | 0.00 | 60 | 1021.2 |
| 20260902193721 | 88 | 42 | 0.0 | 0.0 | 0.00 | 0.00 | 0.00 | 58 | 1021.3 |
| 20260902193619 | 89 | 42 | 0.0 | 0.0 | 0.00 | 0.00 | 0.00 | 59 | 1021.2 |
| 20260902193519 | 88 | 43 | 0.0 | 0.0 | 0.00 | 0.00 | 0.00 | 60 | 1021.3 |
| 20260902193417 | 88 | 43 | 0.0 | 0.0 | 0.00 | 0.00 | 0.00 | 62 | 1021.4 |
| 20260902193319 | 88 | 337 | 0.0 | 0.0 | 0.00 | 0.00 | 0.00 | 60 | 1021.4 |
| 20260902193219 | 88 | 337 | 0.0 | 0.0 | 0.00 | 0.00 | 0.00 | 60 | 1021.3 |
| 20260902193117 | 88 | 5 | 0.0 | 0.0 | 0.00 | 0.00 | 0.00 | 60 | 1021.3 |
| 20260902193016 | 88 | 5 | 0.0 | 0.0 | 0.00 | 0.00 | 0.00 | 62 | 1021.3 |
| 20260902192914 | 88 | 53 | 0.0 | 0.0 | 0.00 | 0.00 | 0.00 | 60 | 1021.3 |
| 20260902192815 | 88 | 40 | 0.0 | 0.0 | 0.00 | 0.00 | 0.00 | 62 | 1021.3 |
| 20260902192712 | 88 | 344 | 0.0 | 0.0 | 0.00 | 0.00 | 0.00 | 62 | 1021.3 |
| 20260902192613 | 88 | 342 | 0.0 | 0.0 | 0.00 | 0.00 | 0.00 | 61 | 1021.4 |
| 20260902192506 | 88 | 342 | 0.0 | 0.0 | 0.00 | 0.00 | 0.00 | 59 | 1021.4 |
| 20260902192405 | 88 | 328 | 0.0 | 0.0 | 0.00 | 0.00 | 0.00 | 60 | 1021.3 |
| 20260902192307 | 88 | 334 | 0.0 | 0.0 | 0.00 | 0.00 | 0.00 | 62 | 1021.3 |
| 20260902192205 | 88 | 325 | 0.0 | 0.0 | 0.00 | 0.00 | 0.00 | 63 | 1021.3 |
| 20260902192106 | 88 | 348 | 0.0 | 0.0 | 0.00 | 0.00 | 0.00 | 65 | 1021.3 |
| 20260902192006 | 88 | 49 | 0.0 | 0.0 | 0.00 | 0.00 | 0.00 | 61 | 1021.4 |
| 20260902191905 | 88 | 49 | 0.0 | 0.0 | 0.00 | 0.00 | 0.00 | 61 | 1021.4 |
| 20260902191806 | 88 | 45 | 0.0 | 0.0 | 0.00 | 0.00 | 0.00 | 62 | 1021.3 |
| 20260902191705 | 88 | 28 | 0.0 | 0.0 | 0.00 | 0.00 | 0.00 | 59 | 1021.4 |
| 20260902191606 | 88 | 26 | 0.0 | 0.0 | 0.00 | 0.00 | 0.00 | 62 | 1021.3 |
| 20260902191506 | 88 | 13 | 0.0 | 0.0 | 0.00 | 0.00 | 0.00 | 62 | 1021.3 |
| 20260902191407 | 88 | 9 | 0.0 | 0.0 | 0.00 | 0.00 | 0.00 | 64 | 1021.4 |
| 20260902191306 | 88 | 20 | 0.0 | 0.0 | 0.00 | 0.00 | 0.00 | 61 | 1021.4 |
| 20260902191207 | 88 | 14 | 0.0 | 0.0 | 0.00 | 0.00 | 0.00 | 63 | 1021.4 |
| 20260902191105 | 88 | 14 | 0.0 | 0.0 | 0.00 | 0.00 | 0.00 | 61 | 1021.4 |
| 20260902191005 | 88 | 17 | 0.0 | 0.0 | 0.00 | 0.00 | 0.00 | 60 | 1021.4 |
| 20260902190907 | 88 | 336 | 0.0 | 0.0 | 0.00 | 0.00 | 0.00 | 61 | 1021.4 |
| 20260902190804 | 88 | 347 | 0.0 | 0.0 | 0.00 | 0.00 | 0.00 | 60 | 1021.5 |
| 20260902190705 | 88 | 346 | 0.0 | 0.0 | 0.00 | 0.00 | 0.00 | 60 | 1021.4 |
| 20260902190603 | 88 | 346 | 0.0 | 0.0 | 0.00 | 0.00 | 0.00 | 62 | 1021.4 |
| 20260902190502 | 88 | 280 | 0.0 | 0.0 | 0.00 | 0.00 | 0.00 | 62 | 1021.4 |
| 20260902190401 | 88 | 327 | 0.0 | 0.0 | 0.00 | 0.00 | 0.00 | 63 | 1021.4 |
| 20260902190302 | 88 | 329 | 0.0 | 0.0 | 0.00 | 0.00 | 0.00 | 61 | 1021.3 |
| 20260902190202 | 88 | 351 | 0.0 | 0.0 | 0.00 | 0.00 | 0.00 | 64 | 1021.4 |
| 20260902190002 | 88 | 26 | 0.0 | 0.0 | 0.00 | 0.00 | 0.00 | 62 | 1021.4 |
| 20260902185903 | 88 | 355 | 0.0 | 0.0 | 0.00 | 0.00 | 0.00 | 62 | 1021.5 |
| 20260902185801 | 88 | 5 | 0.0 | 0.0 | 0.00 | 0.00 | 0.00 | 63 | 1021.4 |
| 20260902185703 | 88 | 9 | 0.0 | 0.0 | 0.00 | 0.00 | 0.00 | 62 | 1021.5 |
| 20260902185602 | 88 | 53 | 0.0 | 0.0 | 0.00 | 0.00 | 0.00 | 65 | 1021.5 |
| 20260902185503 | 88 | 54 | 0.0 | 0.0 | 0.00 | 0.00 | 0.00 | 61 | 1021.5 |
| 20260902185359 | 88 | 22 | 0.0 | 0.0 | 0.00 | 0.00 | 0.00 | 62 | 1021.5 |
| 20260902185301 | 88 | 355 | 0.0 | 0.0 | 0.00 | 0.00 | 0.00 | 62 | 1021.5 |
| 20260902185200 | 88 | 24 | 0.0 | 0.0 | 0.00 | 0.00 | 0.00 | 62 | 1021.6 |
| 20260902185057 | 88 | 23 | 0.0 | 0.0 | 0.00 | 0.00 | 0.00 | 63 | 1021.6 |
| 20260902184959 | 88 | 25 | 0.0 | 0.0 | 0.00 | 0.00 | 0.00 | 61 | 1021.6 |
| 20260902184859 | 88 | 20 | 0.0 | 0.0 | 0.00 | 0.00 | 0.00 | 61 | 1021.6 |
| 20260902184758 | 88 | 337 | 0.0 | 0.0 | 0.00 | 0.00 | 0.00 | 63 | 1021.6 |
| 20260902184657 | 88 | 329 | 0.0 | 0.0 | 0.00 | 0.00 | 0.00 | 64 | 1021.5 |
| 20260902184557 | 88 | 355 | 0.0 | 0.0 | 0.00 | 0.00 | 0.00 | 65 | 1021.6 |
| 20260902184458 | 88 | 329 | 0.0 | 0.0 | 0.00 | 0.00 | 0.00 | 64 | 1021.6 |
| 20260902184351 | 88 | 342 | 0.0 | 3.5 | 0.00 | 0.00 | 0.00 | 65 | 1021.7 |
| 20260902184250 | 88 | 13 | 0.0 | 3.5 | 0.00 | 0.00 | 0.00 | 63 | 1021.6 |
| 20260902184149 | 88 | 13 | 0.0 | 3.5 | 0.00 | 0.00 | 0.00 | 62 | 1021.6 |
| 20260902184051 | 88 | 13 | 0.0 | 3.5 | 0.00 | 0.00 | 0.00 | 63 | 1021.7 |
| 20260902183949 | 88 | 13 | 0.0 | 3.5 | 0.00 | 0.00 | 0.00 | 61 | 1021.7 |
| 20260902183850 | 88 | 45 | 0.0 | 3.5 | 0.00 | 0.00 | 0.00 | 61 | 1021.7 |
| 20260902183749 | 88 | 45 | 0.9 | 3.5 | 0.00 | 0.00 | 0.00 | 61 | 1021.9 |
| 20260902183649 | 88 | 42 | 0.9 | 3.5 | 0.00 | 0.00 | 0.00 | 60 | 1021.9 |
| 20260902183550 | 88 | 239 | 0.9 | 3.5 | 0.00 | 0.00 | 0.00 | 60 | 1021.9 |
| 20260902183449 | 88 | 238 | 0.9 | 3.5 | 0.00 | 0.00 | 0.00 | 60 | 1021.9 |
| 20260902183351 | 88 | 275 | 0.9 | 4.3 | 0.00 | 0.00 | 0.00 | 61 | 1021.7 |
| 20260902183249 | 88 | 294 | 0.9 | 7.0 | 0.00 | 0.00 | 0.00 | 63 | 1021.7 |
| 20260902183149 | 88 | 342 | 0.9 | 7.0 | 0.00 | 0.00 | 0.00 | 63 | 1021.7 |
| 20260902183050 | 88 | 23 | 1.7 | 7.0 | 0.00 | 0.00 | 0.00 | 62 | 1021.7 |
| 20260902182949 | 88 | 22 | 1.7 | 7.0 | 0.00 | 0.00 | 0.00 | 64 | 1021.9 |
| 20260902182849 | 88 | 14 | 1.7 | 7.0 | 0.00 | 0.00 | 0.00 | 65 | 1021.9 |
| 20260902182751 | 87 | 10 | 1.7 | 7.0 | 0.00 | 0.00 | 0.00 | 64 | 1021.7 |
| 20260902182651 | 87 | 5 | 1.7 | 7.0 | 0.00 | 0.00 | 0.00 | 63 | 1021.7 |
| 20260902182549 | 87 | 5 | 1.7 | 7.0 | 0.00 | 0.00 | 0.00 | 62 | 1021.9 |
| 20260902182449 | 87 | 5 | 1.7 | 7.0 | 0.00 | 0.00 | 0.00 | 62 | 1021.6 |
| 20260902182351 | 87 | 5 | 0.9 | 7.0 | 0.00 | 0.00 | 0.00 | 62 | 1021.7 |
| 20260902182250 | 87 | 19 | 0.9 | 6.1 | 0.00 | 0.00 | 0.00 | 63 | 1021.7 |
| 20260902182150 | 88 | 355 | 0.9 | 6.1 | 0.00 | 0.00 | 0.00 | 63 | 1021.6 |
| 20260902182049 | 87 | 342 | 0.9 | 6.1 | 0.00 | 0.00 | 0.00 | 63 | 1021.7 |
| 20260902181949 | 88 | 5 | 0.0 | 3.5 | 0.00 | 0.00 | 0.00 | 64 | 1021.7 |
| 20260902181851 | 87 | 319 | 0.9 | 3.5 | 0.00 | 0.00 | 0.00 | 62 | 1021.9 |
| 20260902181750 | 87 | 19 | 0.9 | 3.5 | 0.00 | 0.00 | 0.00 | 61 | 1021.6 |
| 20260902181650 | 87 | 19 | 0.9 | 4.3 | 0.00 | 0.00 | 0.00 | 62 | 1021.9 |
| 20260902181549 | 88 | 15 | 0.9 | 6.1 | 0.00 | 0.00 | 0.00 | 64 | 1021.9 |
| 20260902181450 | 88 | 315 | 0.9 | 6.1 | 0.00 | 0.00 | 0.00 | 64 | 1021.7 |
| 20260902181351 | 87 | 305 | 0.9 | 6.1 | 0.00 | 0.00 | 0.00 | 62 | 1021.9 |
| 20260902181249 | 87 | 281 | 0.9 | 6.1 | 0.00 | 0.00 | 0.00 | 64 | 1021.9 |
| 20260902181151 | 87 | 339 | 0.9 | 6.1 | 0.00 | 0.00 | 0.00 | 64 | 1021.9 |
| 20260902181046 | 87 | 332 | 0.9 | 6.1 | 0.00 | 0.00 | 0.00 | 62 | 1021.9 |
| 20260902180945 | 87 | 346 | 0.9 | 6.1 | 0.00 | 0.00 | 0.00 | 64 | 1021.9 |
| 20260902180847 | 87 | 22 | 0.9 | 6.1 | 0.00 | 0.00 | 0.00 | 63 | 1021.9 |
| 20260902180745 | 87 | 5 | 0.9 | 6.1 | 0.00 | 0.00 | 0.00 | 61 | 1022.0 |
| 20260902180646 | 87 | 17 | 0.0 | 6.1 | 0.00 | 0.00 | 0.00 | 63 | 1021.9 |
| 20260902180545 | 87 | 9 | 0.0 | 3.5 | 0.00 | 0.00 | 0.00 | 64 | 1021.7 |
| 20260902180447 | 87 | 17 | 0.0 | 3.5 | 0.00 | 0.00 | 0.00 | 63 | 1021.7 |
| 20260902180345 | 87 | 42 | 0.0 | 3.5 | 0.00 | 0.00 | 0.00 | 63 | 1021.9 |
| 20260902180246 | 87 | 13 | 0.0 | 3.5 | 0.00 | 0.00 | 0.00 | 62 | 1021.9 |
| 20260902180147 | 87 | 0 | 0.0 | 3.5 | 0.00 | 0.00 | 0.00 | 63 | 1021.9 |
| 20260902180047 | 87 | 0 | 0.0 | 4.3 | 0.00 | 0.00 | 0.00 | 66 | 1021.9 |
| 20260902175946 | 87 | 44 | 0.0 | 4.3 | 0.00 | 0.00 | 0.00 | 64 | 1021.9 |
| 20260902175847 | 87 | 355 | 0.9 | 4.3 | 0.00 | 0.00 | 0.00 | 63 | 1022.0 |
| 20260902175745 | 87 | 355 | 0.9 | 7.0 | 0.00 | 0.00 | 0.00 | 66 | 1021.9 |
| 20260902175646 | 87 | 342 | 0.9 | 7.0 | 0.00 | 0.00 | 0.00 | 63 | 1021.9 |
| 20260902175545 | 87 | 25 | 0.9 | 7.0 | 0.00 | 0.00 | 0.00 | 61 | 1021.9 |
| 20260902175447 | 87 | 14 | 1.7 | 7.0 | 0.00 | 0.00 | 0.00 | 63 | 1022.0 |
| 20260902175346 | 87 | 13 | 1.7 | 7.0 | 0.00 | 0.00 | 0.00 | 62 | 1021.9 |
| 20260902175246 | 87 | 11 | 1.7 | 7.0 | 0.00 | 0.00 | 0.00 | 64 | 1022.0 |
| 20260902175146 | 87 | 15 | 2.6 | 7.0 | 0.00 | 0.00 | 0.00 | 65 | 1022.0 |
| 20260902175045 | 87 | 355 | 2.6 | 7.0 | 0.00 | 0.00 | 0.00 | 64 | 1022.0 |
| 20260902174947 | 87 | 324 | 2.6 | 7.0 | 0.00 | 0.00 | 0.00 | 63 | 1022.0 |
| 20260902174845 | 87 | 335 | 2.6 | 7.0 | 0.00 | 0.00 | 0.00 | 63 | 1022.0 |
| 20260902174745 | 87 | 342 | 2.6 | 6.1 | 0.00 | 0.00 | 0.00 | 64 | 1022.0 |
| 20260902174647 | 87 | 5 | 3.5 | 6.1 | 0.00 | 0.00 | 0.00 | 66 | 1022.0 |
| 20260902174545 | 87 | 0 | 3.5 | 6.1 | 0.00 | 0.00 | 0.00 | 67 | 1022.0 |
| 20260902174445 | 87 | 11 | 3.5 | 7.0 | 0.00 | 0.00 | 0.00 | 68 | 1022.0 |
| 20260902174345 | 87 | 329 | 2.6 | 7.0 | 0.00 | 0.00 | 0.00 | 66 | 1022.0 |
| 20260902174245 | 87 | 345 | 2.6 | 7.0 | 0.00 | 0.00 | 0.00 | 64 | 1022.0 |
| 20260902174145 | 87 | 304 | 2.6 | 7.0 | 0.00 | 0.00 | 0.00 | 64 | 1022.0 |
| 20260902174046 | 87 | 5 | 2.6 | 7.0 | 0.00 | 0.00 | 0.00 | 64 | 1022.1 |
| 20260902173946 | 87 | 320 | 2.6 | 7.0 | 0.00 | 0.00 | 0.00 | 64 | 1022.1 |
| 20260902173846 | 87 | 348 | 2.6 | 7.0 | 0.00 | 0.00 | 0.00 | 65 | 1022.1 |
| 20260902173745 | 87 | 329 | 2.6 | 7.0 | 0.00 | 0.00 | 0.00 | 65 | 1022.1 |
| 20260902173646 | 87 | 355 | 2.6 | 7.0 | 0.00 | 0.00 | 0.00 | 67 | 1022.1 |
| 20260902173546 | 87 | 331 | 2.6 | 7.0 | 0.00 | 0.00 | 0.00 | 64 | 1022.2 |
| 20260902173447 | 87 | 0 | 2.6 | 7.0 | 0.00 | 0.00 | 0.00 | 66 | 1022.1 |
| 20260902173345 | 87 | 344 | 2.6 | 7.0 | 0.00 | 0.00 | 0.00 | 68 | 1022.2 |
| 20260902173246 | 87 | 342 | 2.6 | 7.0 | 0.00 | 0.00 | 0.00 | 68 | 1022.2 |
| 20260902173147 | 87 | 343 | 2.6 | 7.0 | 0.00 | 0.00 | 0.00 | 66 | 1022.1 |
| 20260902173045 | 87 | 318 | 2.6 | 7.0 | 0.00 | 0.00 | 0.00 | 64 | 1022.2 |
| 20260902172945 | 87 | 320 | 2.6 | 7.0 | 0.00 | 0.00 | 0.00 | 68 | 1022.1 |
| 20260902172846 | 87 | 301 | 2.6 | 7.0 | 0.00 | 0.00 | 0.00 | 64 | 1022.2 |
| 20260902172745 | 87 | 326 | 1.7 | 7.0 | 0.00 | 0.00 | 0.00 | 67 | 1022.2 |
| 20260902172647 | 87 | 325 | 1.7 | 5.2 | 0.00 | 0.00 | 0.00 | 67 | 1022.2 |
| 20260902172546 | 87 | 21 | 1.7 | 4.3 | 0.00 | 0.00 | 0.00 | 65 | 1022.1 |
| 20260902172446 | 87 | 21 | 1.7 | 4.3 | 0.00 | 0.00 | 0.00 | 64 | 1022.2 |
| 20260902172343 | 87 | 327 | 1.7 | 4.3 | 0.00 | 0.00 | 0.00 | 65 | 1022.1 |
| 20260902172241 | 87 | 329 | 1.7 | 6.1 | 0.00 | 0.00 | 0.00 | 63 | 1022.2 |
| 20260902172142 | 87 | 327 | 1.7 | 6.1 | 0.00 | 0.00 | 0.00 | 64 | 1022.1 |
| 20260902172042 | 87 | 326 | 1.7 | 6.1 | 0.00 | 0.00 | 0.00 | 64 | 1022.3 |
| 20260902171941 | 87 | 326 | 1.7 | 6.1 | 0.00 | 0.00 | 0.00 | 68 | 1022.3 |
| 20260902171842 | 87 | 326 | 1.7 | 6.1 | 0.00 | 0.00 | 0.00 | 65 | 1022.3 |
| 20260902171743 | 87 | 314 | 2.6 | 6.1 | 0.00 | 0.00 | 0.00 | 64 | 1022.2 |
| 20260902171641 | 87 | 314 | 2.6 | 6.1 | 0.00 | 0.00 | 0.00 | 63 | 1022.3 |
| 20260902171541 | 87 | 314 | 2.6 | 6.1 | 0.00 | 0.00 | 0.00 | 65 | 1022.3 |
| 20260902171442 | 87 | 313 | 2.6 | 6.1 | 0.00 | 0.00 | 0.00 | 62 | 1022.3 |
| 20260902171343 | 87 | 300 | 2.6 | 6.1 | 0.00 | 0.00 | 0.00 | 62 | 1022.3 |
| 20260902171241 | 87 | 292 | 1.7 | 6.1 | 0.00 | 0.00 | 0.00 | 63 | 1022.4 |
| 20260902171142 | 87 | 306 | 1.7 | 6.1 | 0.00 | 0.00 | 0.00 | 65 | 1022.4 |
| 20260902171041 | 87 | 296 | 1.7 | 5.2 | 0.00 | 0.00 | 0.00 | 66 | 1022.3 |
| 20260902170942 | 87 | 5 | 1.7 | 5.2 | 0.00 | 0.00 | 0.00 | 67 | 1022.4 |
| 20260902170843 | 87 | 5 | 2.6 | 5.2 | 0.00 | 0.00 | 0.00 | 66 | 1022.2 |
| 20260902170741 | 87 | 351 | 2.6 | 5.2 | 0.00 | 0.00 | 0.00 | 63 | 1022.3 |
| 20260902170641 | 87 | 18 | 2.6 | 7.0 | 0.00 | 0.00 | 0.00 | 64 | 1022.3 |
| 20260902170541 | 87 | 284 | 2.6 | 7.0 | 0.00 | 0.00 | 0.00 | 65 | 1022.2 |
| 20260902170443 | 87 | 257 | 2.6 | 7.0 | 0.00 | 0.00 | 0.00 | 66 | 1022.3 |
| 20260902170341 | 87 | 286 | 2.6 | 7.0 | 0.00 | 0.00 | 0.00 | 65 | 1022.4 |
| 20260902170243 | 87 | 288 | 2.6 | 7.0 | 0.00 | 0.00 | 0.00 | 67 | 1022.4 |
| 20260902170142 | 86 | 355 | 2.6 | 7.0 | 0.00 | 0.00 | 0.00 | 67 | 1022.3 |
| 20260902170042 | 86 | 15 | 2.6 | 7.0 | 0.00 | 0.00 | 0.00 | 67 | 1022.4 |
| 20260902165941 | 86 | 355 | 2.6 | 7.0 | 0.00 | 0.00 | 0.00 | 64 | 1022.3 |
| 20260902165843 | 86 | 346 | 2.6 | 7.0 | 0.00 | 0.00 | 0.00 | 63 | 1022.4 |
| 20260902165742 | 86 | 332 | 2.6 | 7.0 | 0.00 | 0.00 | 0.00 | 64 | 1022.4 |
| 20260902165641 | 86 | 315 | 2.6 | 6.1 | 0.00 | 0.00 | 0.00 | 63 | 1022.4 |
| 20260902165542 | 86 | 302 | 2.6 | 7.0 | 0.00 | 0.00 | 0.00 | 63 | 1022.4 |
| 20260902165442 | 86 | 323 | 2.6 | 7.0 | 0.00 | 0.00 | 0.00 | 64 | 1022.4 |
| 20260902165343 | 86 | 323 | 2.6 | 7.0 | 0.00 | 0.00 | 0.00 | 64 | 1022.4 |
| 20260902165242 | 86 | 323 | 2.6 | 7.0 | 0.00 | 0.00 | 0.00 | 65 | 1022.5 |
| 20260902165142 | 86 | 323 | 2.6 | 7.0 | 0.00 | 0.00 | 0.00 | 66 | 1022.4 |
| 20260902165038 | 86 | 338 | 1.7 | 7.0 | 0.00 | 0.00 | 0.00 | 64 | 1022.4 |
| 20260902164937 | 86 | 337 | 2.6 | 7.0 | 0.00 | 0.00 | 0.00 | 64 | 1022.5 |
| 20260902164838 | 86 | 13 | 2.6 | 7.0 | 0.00 | 0.00 | 0.00 | 67 | 1022.5 |
| 20260902164737 | 86 | 355 | 1.7 | 7.0 | 0.00 | 0.00 | 0.00 | 66 | 1022.6 |
| 20260902164637 | 86 | 355 | 1.7 | 7.0 | 0.00 | 0.00 | 0.00 | 66 | 1022.6 |
| 20260902164538 | 86 | 349 | 1.7 | 4.3 | 0.00 | 0.00 | 0.00 | 65 | 1022.6 |
| 20260902164439 | 86 | 348 | 2.6 | 4.3 | 0.00 | 0.00 | 0.00 | 65 | 1022.5 |
| 20260902164337 | 86 | 347 | 2.6 | 4.3 | 0.00 | 0.00 | 0.00 | 65 | 1022.5 |
| 20260902164239 | 86 | 347 | 2.6 | 4.3 | 0.00 | 0.00 | 0.00 | 64 | 1022.6 |
| 20260902164138 | 86 | 347 | 2.6 | 4.3 | 0.00 | 0.00 | 0.00 | 64 | 1022.5 |
| 20260902164038 | 86 | 347 | 2.6 | 4.3 | 0.00 | 0.00 | 0.00 | 64 | 1022.6 |
| 20260902163937 | 86 | 340 | 2.6 | 5.2 | 0.00 | 0.00 | 0.00 | 65 | 1022.5 |
| 20260902163838 | 86 | 340 | 2.6 | 5.2 | 0.00 | 0.00 | 0.00 | 66 | 1022.5 |
| 20260902163737 | 86 | 343 | 2.6 | 5.2 | 0.00 | 0.00 | 0.00 | 66 | 1022.5 |
| 20260902163631 | 86 | 343 | 1.7 | 5.2 | 0.00 | 0.00 | 0.00 | 67 | 1022.6 |
| 20260902163532 | 86 | 334 | 1.7 | 5.2 | 0.00 | 0.00 | 0.00 | 67 | 1022.6 |
| 20260902163431 | 86 | 334 | 1.7 | 5.2 | 0.00 | 0.00 | 0.00 | 67 | 1022.6 |
| 20260902163331 | 86 | 332 | 1.7 | 5.2 | 0.00 | 0.00 | 0.00 | 65 | 1022.7 |
| 20260902163227 | 86 | 303 | 1.7 | 5.2 | 0.00 | 0.00 | 0.00 | 63 | 1022.7 |
| 20260902163127 | 86 | 314 | 1.7 | 5.2 | 0.00 | 0.00 | 0.00 | 64 | 1022.7 |
| 20260902163025 | 86 | 313 | 1.7 | 5.2 | 0.00 | 0.00 | 0.00 | 67 | 1022.7 |
| 20260902162923 | 86 | 327 | 1.7 | 4.3 | 0.00 | 0.00 | 0.00 | 65 | 1022.7 |
| 20260902162823 | 86 | 325 | 1.7 | 4.3 | 0.00 | 0.00 | 0.00 | 65 | 1022.7 |
| 20260902162724 | 86 | 325 | 1.7 | 4.3 | 0.00 | 0.00 | 0.00 | 62 | 1022.7 |
| 20260902162624 | 86 | 325 | 1.7 | 4.3 | 0.00 | 0.00 | 0.00 | 64 | 1022.9 |
| 20260902162523 | 86 | 325 | 1.7 | 4.3 | 0.00 | 0.00 | 0.00 | 63 | 1022.9 |
| 20260902162423 | 86 | 327 | 1.7 | 4.3 | 0.00 | 0.00 | 0.00 | 63 | 1022.8 |
| 20260902162324 | 86 | 327 | 0.9 | 4.3 | 0.00 | 0.00 | 0.00 | 64 | 1022.9 |
| 20260902162222 | 86 | 302 | 0.9 | 4.3 | 0.00 | 0.00 | 0.00 | 67 | 1022.9 |
| 20260902162118 | 86 | 301 | 0.9 | 4.3 | 0.00 | 0.00 | 0.00 | 66 | 1022.9 |
| 20260902162016 | 86 | 311 | 0.9 | 4.3 | 0.00 | 0.00 | 0.00 | 69 | 1022.8 |
| 20260902161917 | 86 | 5 | 0.0 | 4.3 | 0.00 | 0.00 | 0.00 | 67 | 1022.9 |
| 20260902161817 | 86 | 313 | 0.0 | 2.6 | 0.00 | 0.00 | 0.00 | 67 | 1022.8 |
| 20260902161715 | 86 | 42 | 0.0 | 2.6 | 0.00 | 0.00 | 0.00 | 66 | 1022.9 |
| 20260902161607 | 86 | 43 | 0.0 | 1.7 | 0.00 | 0.00 | 0.00 | 63 | 1022.9 |
| 20260902161508 | 85 | 43 | 0.0 | 1.7 | 0.00 | 0.00 | 0.00 | 64 | 1022.9 |
| 20260902161409 | 85 | 43 | 0.0 | 1.7 | 0.00 | 0.00 | 0.00 | 63 | 1022.9 |
| 20260902161308 | 85 | 43 | 0.0 | 1.7 | 0.00 | 0.00 | 0.00 | 67 | 1022.9 |
| 20260902161208 | 85 | 43 | 0.0 | 1.7 | 0.00 | 0.00 | 0.00 | 64 | 1022.9 |
| 20260902161105 | 85 | 43 | 0.0 | 1.7 | 0.00 | 0.00 | 0.00 | 63 | 1022.9 |
| 20260902161005 | 85 | 43 | 0.0 | 1.7 | 0.00 | 0.00 | 0.00 | 63 | 1022.9 |
| 20260902160905 | 85 | 44 | 0.0 | 1.7 | 0.00 | 0.00 | 0.00 | 63 | 1022.9 |
| 20260902160805 | 85 | 43 | 0.0 | 1.7 | 0.00 | 0.00 | 0.00 | 63 | 1022.9 |
| 20260902160706 | 86 | 42 | 0.0 | 0.0 | 0.00 | 0.00 | 0.00 | 66 | 1022.9 |
| 20260902160605 | 85 | 39 | 0.0 | 0.0 | 0.00 | 0.00 | 0.00 | 65 | 1022.9 |
| 20260902160505 | 86 | 345 | 0.0 | 0.0 | 0.00 | 0.00 | 0.00 | 66 | 1022.9 |
| 20260902160406 | 85 | 346 | 0.0 | 0.0 | 0.00 | 0.00 | 0.00 | 63 | 1023.0 |
| 20260902160305 | 85 | 346 | 0.0 | 0.0 | 0.00 | 0.00 | 0.00 | 64 | 1023.0 |